GFSNW_sfc_dewp_000.txt.gz
Dewpoint
54 53 53 53 52 51 51 58 49 54 56 46 44 37 31 33 30 31 32 32 32 32 31 32 30 29 33 34 33 32 37 35 34 32 32 29 28 30 30 34 31 32 33 30
54 53 53 53 52 52 51 44 44 54 55 48 48 35 32 33 30 33 32 33 34 34 33 35 33 33 36 35 33 36 36 37 32 28 30 31 31 30 30 34 37 32 32 30
54 54 53 53 52 52 52 45 49 50 47 42 38 35 34 34 37 34 34 34 35 34 34 34 35 33 36 37 37 42 39 34 35 32 32 32 32 30 31 32 32 30 31 30
54 54 54 53 52 52 54 43 43 43 47 46 40 37 34 34 35 36 35 34 34 33 36 35 32 33 34 36 41 37 37 36 34 33 32 32 32 31 30 29 29 28 28 27
54 54 53 52 52 51 52 48 45 41 38 37 37 38 34 33 33 32 33 33 34 35 36 35 35 35 36 36 36 38 41 37 37 35 34 33 31 32 32 30 28 27 29 29
53 54 53 52 52 52 47 46 45 46 44 42 44 41 33 32 34 38 34 36 37 39 38 40 39 40 39 38 38 39 38 39 35 32 33 33 32 31 31 30 29 29 28 30
53 52 51 52 52 51 54 52 48 44 46 48 38 34 34 34 34 37 37 38 39 39 41 42 43 41 39 37 36 36 37 37 35 33 33 27 29 30 30 30 30 30 28 28
52 51 52 53 52 52 55 52 50 46 37 44 39 38 37 37 38 38 37 37 43 45 43 44 37 38 38 38 34 33 36 39 36 32 32 31 31 30 32 31 30 31 31 35
52 51 52 52 52 52 54 54 55 49 38 45 40 39 38 43 45 45 43 42 43 44 48 40 33 32 33 30 29 35 38 41 40 37 30 27 33 30 32 32 29 39 38 38
51 51 50 51 51 52 54 56 59 51 49 46 44 42 43 41 43 43 43 42 45 43 41 35 34 34 31 30 33 34 38 37 34 34 32 32 33 32 36 31 35 41 41 41
51 50 50 50 50 51 53 57 59 56 49 47 47 46 44 43 43 46 43 43 46 44 37 36 37 35 37 35 32 34 32 34 33 33 32 30 34 36 36 38 42 41 42 42
50 50 50 50 50 50 51 52 59 56 54 49 54 52 51 47 45 46 47 44 42 46 43 39 39 35 36 35 32 32 32 35 34 32 33 36 37 37 40 40 42 42 43 39
50 50 50 50 50 50 52 54 58 55 41 50 50 48 50 51 51 52 47 50 45 44 48 46 37 34 41 34 36 37 36 36 36 35 34 35 37 39 40 41 41 42 40 40
49 49 49 49 50 50 51 54 56 54 44 34 43 49 49 49 50 50 50 49 50 49 49 41 36 34 41 36 37 37 37 37 36 35 37 37 38 40 40 41 41 41 41 41
49 49 49 49 50 50 51 54 55 56 50 38 41 45 46 47 48 48 49 49 48 48 44 36 36 43 39 41 39 37 38 37 37 35 37 40 39 40 40 39 41 40 34 29
48 49 49 49 49 49 50 45 51 52 53 40 34 45 44 45 46 46 47 48 48 48 45 39 43 44 39 34 35 37 36 36 37 37 37 37 38 37 38 40 40 32 28 29
48 48 49 49 49 50 46 43 48 50 52 35 36 40 42 42 43 44 45 47 48 47 44 40 39 39 41 34 35 37 38 37 36 37 38 38 37 37 37 32 28 28 28 32
48 48 48 49 49 48 45 47 48 50 44 38 34 34 37 41 43 41 43 42 42 41 40 39 38 40 37 34 36 35 35 33 32 37 37 35 32 30 26 26 27 28 30 33
47 47 47 47 45 41 43 47 47 47 42 35 32 33 33 39 40 39 38 39 33 40 36 38 39 38 34 35 33 33 32 33 35 35 31 28 27 26 26 26 28 29 32 35
46 46 42 36 41 47 46 43 38 37 36 36 32 39 36 38 38 36 36 36 33 32 36 38 37 35 36 35 34 33 33 30 28 34 31 30 29 26 27 27 29 34 34 34
45 42 38 44 45 45 41 36 34 34 33 34 36 37 37 40 35 34 36 33 34 31 32 36 34 31 31 30 31 30 29 26 26 25 26 25 27 27 29 32 36 36 35 34
43 43 43 44 40 39 34 33 35 34 32 37 36 36 37 39 39 37 37 33 35 27 33 32 28 30 26 29 28 28 25 24 25 25 25 25 26 31 34 35 36 35 34 31
42 40 37 35 35 31 29 27 32 33 37 35 36 34 37 38 37 35 33 29 27 35 31 26 28 30 30 28 23 24 25 32 31 25 26 30 31 33 34 34 34 33 32 32
35 34 28 31 29 28 29 31 33 34 35 36 37 35 36 36 32 33 28 30 33 27 24 25 30 29 27 27 29 28 27 30 31 33 34 34 34 33 33 34 31 30 29 31
32 34 26 28 32 35 33 36 36 36 37 37 36 36 32 33 30 31 30 25 23 24 24 32 33 34 32 32 32 30 33 31 31 32 33 34 34 33 33 34 32 32 31 30
32 31 30 34 34 32 32 33 34 37 38 37 36 31 27 25 27 25 23 21 16 26 37 34 30 31 32 31 32 35 34 33 33 34 35 34 34 34 34 34 33 32 32 31
30 32 37 34 34 33 34 34 35 37 34 31 30 22 21 25 22 20 22 24 30 34 32 30 31 30 30 29 34 33 33 33 33 34 34 35 35 34 33 32 32 32 32 31

GFSNW_sfc_dewp_003.txt.gz
Dewpoint
54 53 53 53 52 51 53 55 47 52 56 47 47 37 33 34 33 35 36 36 36 34 35 34 33 35 36 36 35 36 37 33 29 32 33 33 29 32 32 32 32 30 28 30
54 53 53 53 52 52 49 50 48 54 53 36 37 35 36 37 36 35 36 37 36 36 36 32 36 37 39 35 38 36 36 32 27 29 31 34 33 32 33 33 31 29 28 29
54 53 53 53 52 52 52 50 38 50 51 47 38 36 36 36 39 37 36 36 38 37 35 37 34 35 39 40 39 41 39 35 30 28 30 34 32 32 32 32 24 28 29 29
54 53 53 52 52 52 53 49 40 43 39 41 39 39 37 36 38 39 37 37 37 35 33 32 34 37 38 39 42 39 37 31 34 34 35 34 34 32 32 31 30 28 29 28
53 53 53 52 52 51 52 46 45 47 40 40 39 37 37 35 34 35 37 35 38 37 35 37 36 38 38 37 38 38 39 31 33 34 35 35 32 32 31 31 31 30 29 27
52 53 51 51 52 52 53 49 47 48 43 40 36 37 37 37 38 39 37 37 37 34 40 41 41 41 41 40 38 36 35 31 31 31 34 33 26 29 30 30 29 29 28 30
52 51 51 52 51 52 54 53 51 39 35 36 39 39 37 36 39 38 39 38 35 42 43 42 41 39 40 41 39 38 31 30 29 31 29 26 30 31 29 30 31 32 36 38
52 50 50 52 51 52 53 54 51 41 34 41 41 40 39 39 40 39 40 41 44 44 43 36 33 30 28 29 37 40 38 32 32 31 29 29 31 32 31 29 28 38 37 37
52 51 51 52 51 52 53 56 54 45 36 38 44 39 40 36 36 37 40 45 45 43 35 35 29 22 27 27 29 39 39 36 32 28 24 24 27 31 36 34 29 40 41 42
51 51 51 51 51 51 53 54 57 52 42 46 43 40 39 42 39 36 38 41 38 43 35 33 31 28 32 26 26 25 29 27 25 19 27 28 32 34 40 28 32 39 43 43
50 50 50 50 50 51 53 54 57 53 43 47 47 47 44 43 41 34 39 38 37 36 33 34 32 32 31 29 30 27 26 25 29 29 30 25 36 35 29 34 39 40 40 40
50 50 50 50 50 50 51 51 57 56 49 48 52 52 52 49 48 45 42 40 41 40 34 33 34 33 34 33 31 32 30 31 28 31 29 35 36 35 37 37 38 41 41 41
50 50 50 50 50 50 52 52 54 51 40 47 47 46 49 51 50 50 41 40 44 43 44 39 35 34 36 33 33 33 36 38 33 32 33 34 36 36 37 38 40 42 43 43
49 49 49 49 50 50 51 51 55 52 43 34 42 47 47 50 50 49 50 47 48 47 45 36 34 34 41 35 36 35 37 36 34 34 35 35 36 37 39 41 45 45 42 40
49 49 49 49 50 50 50 52 53 54 49 37 38 44 46 47 48 48 48 48 47 43 38 34 35 37 37 36 36 35 39 35 35 33 35 36 37 39 41 42 42 43 40 34
49 49 49 49 49 49 50 44 50 53 53 40 35 44 42 45 46 45 46 47 47 47 41 36 40 42 39 33 35 36 36 38 39 38 38 38 40 40 38 38 39 32 31 34
48 49 49 49 49 50 46 43 47 50 51 36 35 36 40 41 42 44 45 46 45 45 41 38 38 39 41 33 35 36 38 38 38 38 39 40 42 38 35 31 30 31 30 35
48 48 48 49 49 48 45 47 48 50 45 38 35 34 35 41 37 35 40 36 38 41 40 37 36 38 36 33 38 37 37 37 36 39 41 38 34 30 27 28 29 30 32 34
48 48 48 46 44 41 43 47 46 46 43 36 33 32 33 40 38 36 36 38 33 38 34 36 38 34 34 37 37 34 35 36 36 34 32 30 29 29 29 28 29 32 34 34
46 45 40 35 40 47 46 42 37 36 35 35 32 36 34 39 34 33 34 33 32 31 33 36 33 32 34 34 34 35 34 33 34 33 32 30 28 29 29 30 32 35 34 33
44 38 35 42 46 43 38 32 32 33 31 32 34 35 34 38 33 32 33 32 32 28 26 27 23 27 31 32 33 34 36 33 32 31 29 27 27 27 31 30 31 30 30 31
42 41 43 42 40 35 33 32 32 31 28 33 33 34 36 35 40 33 33 29 29 23 28 25 23 27 28 31 32 32 30 29 27 26 26 27 28 31 31 30 30 29 30 29
43 38 34 36 33 30 26 23 30 28 33 34 34 33 34 35 35 32 31 27 25 27 26 22 24 29 32 30 30 29 29 27 27 28 29 31 31 32 29 29 27 32 31 28
32 30 22 24 24 23 28 29 32 33 33 34 33 33 31 31 29 29 25 24 25 19 16 17 25 29 31 31 31 31 31 27 27 29 30 29 28 29 27 23 31 31 27 28
29 28 19 22 28 31 32 33 33 33 34 34 33 32 30 24 22 22 20 16 20 18 16 21 27 29 28 29 31 30 27 24 25 30 28 27 27 32 33 33 32 30 29 29
29 27 22 27 25 30 30 32 32 34 33 32 29 25 19 17 20 16 16 15 14 17 22 26 27 28 29 29 28 29 30 30 31 31 31 30 26 31 33 33 33 32 30 28
25 22 29 32 29 31 31 32 32 35 28 21 22 15 17 22 15 15 23 17 19 22 25 27 27 27 28 29 28 28 30 31 30 30 30 30 28 29 31 31 31 30 28 28

GFSNW_sfc_dewp_009.txt.gz
Dewpoint
52 52 52 52 52 51 53 46 35 43 48 40 39 31 31 36 35 37 36 36 35 34 34 34 34 34 34 36 36 33 36 31 28 29 32 34 32 32 31 29 27 27 24 27
52 52 52 52 52 51 49 45 43 48 43 33 31 34 36 37 34 35 35 34 35 37 35 31 34 35 37 34 36 33 34 29 24 22 25 30 32 33 33 31 28 27 24 25
52 52 52 51 51 51 51 40 36 43 43 41 34 33 34 34 37 36 36 35 37 35 34 35 32 36 39 40 37 41 37 32 27 25 23 30 30 32 33 31 26 27 29 28
52 51 49 51 51 51 49 42 36 42 34 37 37 37 37 35 34 36 37 37 37 34 30 32 35 37 37 38 40 37 35 30 31 32 32 33 33 33 34 33 32 30 30 30
52 49 50 51 51 51 46 43 41 41 41 41 34 35 34 35 35 36 35 36 38 37 34 34 34 37 36 36 37 36 37 29 31 30 34 34 33 34 34 34 34 33 32 29
50 48 49 51 51 51 47 47 45 41 36 33 33 34 35 36 37 37 37 37 35 32 38 40 39 39 38 37 36 33 33 29 28 24 32 31 24 29 32 32 30 29 27 29
49 48 49 50 50 51 50 48 42 37 32 30 34 38 37 36 36 37 37 36 33 37 41 38 36 33 33 35 35 38 31 29 27 22 30 21 27 31 31 30 31 31 31 36
50 48 50 50 50 51 52 50 44 39 32 36 37 38 37 37 37 37 37 41 40 41 36 30 25 26 23 25 39 37 35 32 28 27 27 26 29 29 30 28 28 33 35 37
51 51 51 50 50 51 53 51 46 41 35 35 41 38 38 33 32 34 38 43 43 40 31 27 20 19 24 27 28 37 34 29 26 28 26 23 26 27 32 35 29 36 38 37
51 51 51 51 50 51 52 52 50 46 36 41 43 37 36 39 36 34 34 38 36 39 33 28 22 24 30 26 21 22 26 30 26 25 25 26 29 31 34 27 28 33 37 37
50 50 51 51 51 51 51 50 52 48 40 43 46 45 41 41 38 34 37 37 35 35 32 26 28 19 27 28 29 27 25 25 23 27 26 21 33 34 30 34 35 36 37 37
50 50 50 50 50 50 51 49 53 52 46 44 50 50 49 45 43 41 39 38 36 37 34 33 26 28 31 30 29 32 30 30 27 27 28 32 32 35 36 37 37 37 38 42
49 50 50 50 50 50 51 50 50 48 40 44 44 45 46 51 48 47 40 35 41 39 39 34 34 34 34 32 33 34 36 36 31 31 32 33 36 37 37 38 38 43 40 39
49 49 49 49 50 50 50 49 49 47 41 34 40 45 46 48 50 49 47 45 45 44 39 34 34 34 39 34 37 35 37 39 35 35 37 37 37 38 39 42 41 38 38 38
49 49 49 49 50 50 50 51 52 52 47 37 39 43 45 46 48 47 47 46 45 39 37 34 35 35 36 35 34 34 39 36 35 35 37 37 36 42 41 39 38 38 37 36
48 48 49 49 50 50 50 46 50 52 53 40 35 43 41 43 44 45 44 45 46 43 40 35 38 41 38 33 34 36 37 39 40 39 39 41 43 38 37 37 37 38 39 37
48 48 49 49 49 51 48 45 46 50 51 37 35 36 37 39 41 41 42 43 42 43 40 37 38 39 41 33 35 37 38 41 39 40 42 40 38 36 36 35 34 34 32 32
48 48 48 48 49 48 45 47 48 50 46 39 35 34 36 40 35 34 39 36 37 39 40 36 35 36 36 34 37 37 38 38 38 39 39 38 36 35 33 30 32 32 32 33
48 48 48 47 45 42 43 47 47 46 44 36 33 33 33 39 37 35 33 35 33 36 33 34 36 34 34 37 37 37 37 37 35 34 34 34 32 32 30 28 29 30 31 30
47 44 41 36 39 47 46 43 39 38 36 36 33 35 34 40 34 33 34 33 32 31 33 36 32 33 35 33 32 34 35 35 33 29 30 27 24 24 25 27 30 31 30 29
41 37 35 42 46 42 36 33 34 34 32 33 34 34 34 37 34 33 33 32 32 27 23 30 27 27 29 31 31 31 31 28 27 27 26 26 26 26 27 28 30 29 28 29
41 41 43 41 39 35 33 32 31 31 30 32 32 34 36 34 38 33 32 29 29 23 27 27 22 25 29 29 28 29 29 29 28 28 28 29 29 30 29 29 29 28 27 28
40 37 35 35 33 30 29 26 28 28 31 33 33 32 33 34 35 31 28 25 22 25 23 21 23 28 30 30 30 30 31 29 28 28 30 31 31 30 27 27 30 31 30 30
29 27 29 28 27 29 27 26 27 31 33 33 33 32 30 31 24 28 24 21 22 22 20 16 22 27 27 25 27 28 28 26 25 26 27 27 27 27 25 23 28 28 29 29
28 22 17 25 26 30 32 33 33 33 34 33 32 31 29 26 20 24 22 19 18 20 15 18 23 26 26 26 27 28 26 25 25 27 27 26 25 25 26 27 25 27 31 30
25 24 18 28 28 28 30 32 32 33 33 31 29 18 15 16 15 14 19 14 12 15 16 21 26 26 26 26 27 27 27 27 27 27 27 27 25 25 26 26 25 28 29 29
17 17 29 18 25 19 30 29 32 33 31 26 19 16 14 17 9 12 19 14 16 17 21 24 25 26 26 27 27 26 26 27 27 27 27 27 27 24 22 24 27 26 26 24

GFSNW_sfc_dewp_015.txt.gz
Dewpoint
52 52 51 50 50 51 48 42 40 49 50 37 36 32 31 36 36 37 36 37 36 34 35 34 33 33 34 36 37 34 35 32 27 26 31 34 33 31 29 27 24 30 30 25
52 51 50 50 51 51 48 43 43 47 46 35 34 37 36 36 35 36 35 36 38 37 35 33 35 36 40 38 37 36 35 31 24 18 25 29 32 33 32 31 32 29 29 24
52 50 50 50 51 51 46 40 40 43 43 40 36 35 35 35 37 37 38 36 37 36 35 37 36 36 40 41 39 41 39 32 27 22 20 27 29 31 32 33 32 28 29 27
49 50 50 50 51 51 46 42 40 41 36 39 38 37 35 34 33 37 38 37 36 34 32 35 36 37 37 38 40 39 37 33 32 31 31 32 31 31 32 32 32 31 29 29
49 50 50 50 51 50 45 42 41 41 39 39 36 35 37 36 36 36 37 36 38 37 34 32 34 37 37 36 37 37 36 33 34 32 32 31 31 31 32 33 33 33 33 32
49 49 50 50 50 50 46 46 44 42 36 34 35 35 36 36 37 38 38 38 36 33 37 39 40 40 39 37 37 36 36 34 31 27 29 29 27 26 31 30 32 32 29 29
49 49 50 50 50 50 49 47 41 39 35 33 35 37 37 36 37 36 38 37 35 38 41 38 35 31 33 34 37 38 33 33 31 31 29 23 26 30 30 30 30 31 31 32
49 50 50 50 50 51 50 47 42 38 33 36 37 37 38 37 38 38 39 42 41 40 37 35 30 29 26 30 36 36 35 34 31 29 27 28 28 27 29 30 28 31 32 34
51 51 50 50 50 51 52 50 45 40 36 37 38 38 38 35 35 36 41 43 42 39 34 33 28 25 25 26 29 34 34 32 34 30 27 25 30 27 31 34 29 34 36 37
51 51 51 50 50 51 53 52 49 43 38 40 41 38 38 38 37 36 36 41 39 39 34 32 31 31 29 27 25 24 30 31 30 30 28 30 32 32 33 30 32 36 37 37
50 50 51 50 50 50 52 52 51 47 40 43 45 43 40 40 39 37 39 39 38 37 34 33 33 30 31 30 29 27 28 29 28 29 27 25 31 32 33 36 38 37 38 38
50 50 51 51 50 50 50 50 51 50 46 42 49 51 49 45 42 41 39 39 37 39 35 33 31 32 30 31 31 31 31 32 31 31 32 34 33 36 37 38 38 39 40 39
50 50 50 51 50 50 51 50 50 47 40 43 45 45 47 50 48 47 42 38 41 39 40 36 34 34 33 32 31 34 34 34 34 34 36 34 37 39 41 41 41 40 40 39
49 49 50 50 50 50 50 50 48 47 42 34 40 45 45 48 50 49 47 44 43 41 40 35 34 34 38 34 36 36 37 37 36 35 37 38 38 40 42 41 41 40 39 38
49 49 50 50 50 50 50 50 51 49 46 37 38 44 45 45 47 48 47 45 44 41 38 34 35 37 37 38 36 35 39 38 36 35 38 39 41 42 42 39 38 37 38 34
49 49 49 50 50 50 50 45 48 50 49 39 35 41 41 41 44 46 46 46 44 43 40 36 39 42 40 33 33 38 39 39 40 39 41 43 41 40 38 36 35 31 29 29
48 49 49 49 49 52 48 43 45 50 50 38 35 37 38 40 41 41 41 43 43 44 40 36 38 39 41 33 34 37 38 37 39 40 41 39 38 34 33 26 25 28 27 27
48 48 49 49 49 48 47 47 49 50 46 41 35 35 35 39 36 36 39 38 40 40 40 36 36 37 35 34 37 32 33 36 36 35 35 32 28 26 25 24 25 25 23 25
48 48 49 48 46 43 44 47 47 47 45 38 33 34 34 40 37 36 36 37 34 37 34 35 36 34 34 32 32 34 34 35 34 28 27 26 26 25 26 26 26 24 24 26
48 46 43 36 39 47 47 44 40 38 37 37 34 36 35 39 35 34 35 34 33 32 33 34 33 33 30 30 32 31 30 30 29 29 27 27 27 27 27 27 27 27 27 28
43 38 36 42 46 42 38 34 34 34 32 34 34 34 35 38 34 33 34 33 33 29 28 31 30 29 28 28 27 28 29 28 28 28 27 27 27 27 28 29 30 30 29 29
43 42 43 42 39 35 33 32 32 32 31 33 33 34 36 34 38 34 32 31 30 25 28 28 25 27 28 30 29 29 30 28 26 25 26 26 26 28 28 28 28 28 29 28
41 38 35 36 33 31 30 28 29 30 32 33 33 32 34 34 35 32 31 26 25 27 25 23 24 28 27 25 25 26 26 26 26 26 26 27 27 27 26 27 28 27 28 28
33 33 30 30 29 30 29 27 29 30 33 33 33 32 31 31 30 29 25 25 25 23 20 20 24 26 23 24 26 25 23 24 24 25 27 27 26 26 26 25 26 25 26 28
28 28 26 27 27 30 32 33 33 33 34 33 32 30 29 27 26 26 24 23 20 20 20 22 25 26 26 26 26 24 25 24 24 27 27 26 25 25 26 27 28 28 26 26
28 25 24 27 27 28 30 32 32 34 33 31 29 24 25 24 23 22 20 19 16 20 22 24 25 26 26 26 26 26 26 26 27 27 27 27 26 25 28 28 27 26 26 26
21 22 26 24 24 27 28 33 33 34 33 27 24 21 22 22 19 20 21 18 20 22 23 23 25 25 25 25 26 25 26 26 27 27 28 28 28 26 25 26 29 29 29 28

GFSNW_sfc_dewp_018.txt.gz
Dewpoint
52 50 50 50 51 51 52 50 41 53 56 41 40 35 32 36 35 36 36 36 34 33 34 33 33 33 34 37 36 32 36 34 26 23 32 34 32 30 28 28 20 29 30 22
51 50 50 51 51 52 51 46 46 51 52 44 45 37 36 36 34 35 34 36 36 37 35 34 35 35 38 37 36 35 36 33 22 21 29 32 32 31 31 31 32 29 31 25
50 50 50 51 51 52 50 45 48 46 44 42 37 36 35 35 37 37 37 36 36 36 36 36 36 36 38 40 38 41 40 33 26 18 18 25 25 25 27 29 32 27 28 26
50 50 50 50 51 51 50 46 45 45 45 42 39 37 35 34 34 37 37 35 35 35 36 34 36 36 37 37 40 40 38 30 30 28 27 27 29 28 27 27 30 29 29 25
50 50 50 50 51 51 49 46 45 44 42 41 38 39 36 34 35 34 34 34 36 34 32 29 33 32 33 31 38 38 37 33 34 30 30 28 29 28 28 30 30 29 29 29
49 50 50 50 51 51 50 49 46 46 40 39 42 39 36 35 37 39 37 38 37 38 35 37 41 41 39 37 36 36 37 37 34 33 30 31 32 29 28 29 28 29 28 28
49 50 50 50 50 51 52 50 46 50 44 43 39 37 37 37 37 38 38 37 42 39 42 41 38 37 37 37 38 39 39 38 36 35 34 30 28 29 29 29 29 28 29 30
49 50 50 50 50 51 52 50 47 46 37 43 39 39 39 40 40 39 39 42 42 43 41 42 40 35 37 36 36 37 38 39 35 32 30 28 27 28 29 29 30 31 31 34
52 51 50 50 50 52 54 53 49 47 40 45 38 40 40 41 42 42 43 43 44 43 45 41 36 32 26 26 30 36 36 38 40 34 30 28 29 29 32 34 28 35 37 38
51 51 51 50 50 51 55 54 54 47 50 42 42 41 41 41 42 42 43 43 43 43 44 37 39 34 30 27 33 32 35 35 34 33 32 32 32 32 34 31 34 38 38 38
51 51 51 50 50 50 54 55 55 51 47 45 46 43 42 41 42 45 44 44 44 44 38 37 38 36 36 32 29 31 31 36 33 33 30 29 32 32 35 38 39 39 40 40
50 50 51 50 49 50 52 53 55 53 51 48 51 52 48 47 43 43 46 42 42 45 43 40 39 34 35 39 34 32 32 34 32 32 33 35 36 36 38 40 41 41 41 39
50 50 51 51 50 50 52 54 55 54 51 49 49 48 49 52 49 48 46 47 44 44 46 45 41 35 40 34 37 39 34 35 36 36 34 34 37 39 41 42 41 41 39 35
49 49 50 50 50 50 52 55 53 52 47 37 46 46 46 48 51 50 49 47 46 46 47 40 36 38 40 42 39 38 36 37 36 36 37 37 37 42 42 41 41 36 33 31
49 49 50 51 50 51 55 56 55 54 52 43 46 47 45 45 48 50 49 48 48 47 43 38 40 44 40 40 39 39 37 36 37 37 39 40 41 41 42 38 32 31 28 23
49 49 50 51 50 51 54 51 54 55 55 47 41 46 44 44 47 48 48 48 49 48 45 41 44 43 43 34 37 38 38 39 40 39 40 41 41 39 34 32 27 22 23 23
48 49 49 50 49 56 51 47 50 52 54 44 41 43 43 42 44 44 46 47 48 48 46 41 43 44 42 34 36 38 38 35 36 39 40 38 37 34 27 24 24 26 22 20
48 48 48 48 48 49 51 52 50 52 50 46 38 39 41 42 42 40 41 43 42 42 42 38 40 40 38 35 37 34 34 35 32 31 32 31 27 26 25 23 22 20 18 21
48 48 48 49 48 45 47 47 48 51 49 43 36 36 35 42 39 40 40 41 37 39 36 36 39 37 35 37 33 34 35 36 29 28 27 24 23 22 19 17 17 20 23 24
48 47 44 36 41 47 48 46 43 40 38 39 35 41 39 41 38 38 39 38 37 35 36 36 34 35 30 33 34 36 33 30 28 27 25 23 21 18 19 20 23 25 24 27
43 39 36 44 46 43 39 35 36 36 33 35 35 35 36 40 38 36 37 34 36 32 33 34 33 32 32 30 28 29 29 28 26 22 21 19 21 21 24 26 27 28 29 29
43 43 44 42 39 34 33 33 33 33 34 34 34 35 37 35 39 34 33 34 34 28 32 31 29 31 28 28 29 29 28 23 19 19 20 22 24 27 28 28 28 30 31 32
44 38 33 34 33 32 32 30 32 33 36 35 34 33 35 36 37 34 35 32 31 32 28 27 29 29 29 29 23 24 23 24 26 21 22 25 27 29 30 31 32 33 32 31
35 33 31 32 30 33 33 34 36 36 37 36 36 34 36 34 33 34 31 30 30 26 24 27 29 30 27 22 25 22 19 32 27 25 27 32 33 32 33 32 32 31 31 32
33 34 30 31 31 34 34 35 36 35 37 37 35 34 34 33 30 31 29 27 25 25 26 29 31 27 24 26 27 23 30 33 29 26 31 33 32 32 31 33 34 33 32 31
31 31 30 31 32 32 32 34 33 35 34 35 35 32 31 29 30 27 27 24 22 27 32 33 27 27 27 28 28 26 25 27 26 27 28 30 32 32 31 32 32 32 32 32
32 30 32 32 33 34 34 36 35 36 34 32 31 29 27 27 26 25 25 25 29 32 30 27 27 27 25 25 28 31 29 27 28 28 30 30 32 34 32 32 29 31 31 32

GFSNW_sfc_dewp_021.txt.gz
Dewpoint
51 50 50 51 52 52 52 49 39 55 57 37 40 37 32 36 33 35 34 33 31 31 31 31 32 31 34 36 34 30 33 31 28 19 28 32 29 28 28 29 21 28 30 24
51 50 50 50 51 52 51 41 44 54 55 44 46 37 35 34 33 32 33 34 34 35 33 33 33 34 38 36 35 36 34 33 26 22 28 32 28 28 28 27 32 26 32 26
50 51 51 51 51 52 53 43 46 44 46 42 36 36 34 35 37 36 35 35 35 35 34 35 35 35 38 39 38 41 40 31 26 24 22 22 22 22 22 25 29 29 28 24
50 50 50 51 51 52 53 45 44 44 43 41 38 37 34 33 32 35 35 34 33 34 34 34 34 35 37 37 39 38 36 31 29 28 24 22 22 23 23 23 25 28 28 25
50 50 51 51 51 51 50 41 43 44 44 40 38 38 34 31 33 33 33 33 34 32 35 28 32 31 30 30 36 36 35 34 35 30 26 23 25 23 23 24 26 26 26 26
50 50 51 50 51 51 48 49 50 45 42 42 41 38 35 33 36 38 34 35 34 37 34 38 40 39 36 35 34 35 36 37 32 31 31 32 34 29 24 24 26 28 28 28
50 50 51 50 51 52 52 51 48 51 45 43 38 35 35 35 35 37 37 36 40 41 41 40 39 38 36 37 37 38 40 36 38 36 35 30 29 27 26 27 26 27 27 28
50 51 50 50 51 52 52 50 48 48 42 41 39 38 37 39 40 39 40 42 42 44 41 42 39 36 37 36 34 35 37 39 36 35 29 28 27 28 28 29 29 29 30 32
52 51 50 50 50 52 53 53 53 50 43 47 39 40 41 42 43 43 43 44 45 45 47 41 36 32 26 28 31 35 36 41 39 35 32 29 30 29 31 32 30 35 36 36
52 51 51 50 50 51 55 54 57 47 52 44 42 43 43 41 42 42 44 44 45 45 46 39 40 33 29 26 34 33 35 36 36 34 33 31 29 32 34 30 34 39 38 40
51 51 51 50 50 50 54 55 56 52 49 46 45 43 44 43 41 46 45 44 45 47 40 40 41 39 37 33 28 33 33 35 34 35 32 29 32 32 35 39 41 41 41 41
51 51 51 50 50 50 52 51 55 55 50 49 52 51 51 49 46 42 47 42 44 44 44 43 43 37 38 39 33 28 30 34 34 33 34 34 34 35 39 41 41 41 40 39
50 51 52 51 51 50 52 53 55 53 55 49 48 47 50 51 52 51 46 49 42 44 48 48 44 36 42 35 37 41 33 32 37 37 33 33 37 40 42 41 40 40 39 36
50 49 50 51 50 51 53 53 55 52 49 40 48 47 48 49 51 51 51 48 50 48 48 42 38 39 41 43 39 38 37 36 37 38 35 37 41 42 42 41 40 38 32 30
49 49 50 51 51 52 55 56 55 55 51 46 49 48 46 47 48 49 49 48 48 49 45 38 40 46 45 44 42 40 36 36 38 38 40 41 42 42 42 40 34 31 28 25
49 50 50 51 51 51 52 49 54 55 54 50 45 48 45 45 47 48 48 48 50 48 47 42 45 43 43 38 38 37 35 36 37 39 40 41 42 42 38 34 29 25 26 24
48 49 49 50 50 55 48 46 51 51 55 50 44 45 45 44 46 47 47 49 49 47 48 46 46 45 44 38 37 36 38 39 37 39 41 39 38 36 32 27 26 27 21 18
48 48 48 49 48 50 52 53 52 52 50 50 42 41 44 44 45 43 44 46 46 46 45 41 43 44 43 38 39 39 37 36 34 36 37 36 32 29 26 24 20 17 18 19
48 48 48 50 50 50 52 48 50 54 51 45 38 37 36 43 41 42 43 44 39 42 37 38 41 37 36 38 39 37 36 34 34 31 29 27 25 22 19 17 19 19 19 19
48 48 46 38 43 47 48 50 48 48 49 46 38 44 39 41 40 39 39 40 39 36 38 37 34 34 37 35 36 36 37 34 32 31 28 26 22 19 19 19 20 22 22 25
45 39 37 44 47 45 41 36 38 37 35 37 39 41 39 43 39 37 40 35 36 34 35 36 35 33 35 35 35 33 32 30 28 25 21 18 19 19 22 25 27 28 27 28
44 43 44 43 39 36 36 34 34 34 35 35 34 36 39 38 41 36 34 34 36 32 34 33 29 32 34 33 31 31 29 27 21 19 18 19 19 23 27 28 28 28 31 34
42 36 34 34 33 32 32 31 33 34 34 34 34 33 35 35 37 33 34 33 34 34 30 28 30 32 29 30 30 28 26 24 23 17 18 21 24 28 30 32 32 35 32 31
35 33 31 32 31 33 34 36 37 36 36 36 35 34 35 35 34 35 33 34 32 29 27 30 32 30 30 31 27 25 24 32 26 23 25 28 34 34 36 34 34 33 33 33
35 35 31 32 34 34 34 35 36 36 39 39 38 38 37 35 32 35 32 29 28 27 28 32 32 33 31 28 28 23 25 35 31 25 30 35 35 35 33 34 35 34 34 34
34 34 32 34 34 33 33 33 34 37 37 38 37 34 33 32 33 30 30 29 25 30 34 35 31 29 28 28 26 25 24 25 24 25 26 30 35 34 32 34 34 34 33 33
34 33 36 35 35 34 35 36 36 37 36 34 35 31 30 31 30 28 29 30 33 35 34 30 28 27 26 25 27 33 30 28 27 27 28 29 32 35 34 33 31 32 34 34

GFSNW_sfc_dewp_024.txt.gz
Dewpoint
50 50 50 51 51 52 53 57 39 58 60 38 39 38 31 35 31 34 32 31 27 28 29 28 30 30 35 34 32 29 30 30 36 20 24 27 26 27 27 36 27 35 33 24
50 50 50 51 51 52 54 43 48 55 56 42 49 37 32 31 30 29 31 32 32 33 32 32 32 36 37 34 37 37 34 34 33 24 28 30 23 25 25 30 36 30 30 26
50 50 51 51 52 52 53 47 46 43 46 46 38 37 34 34 37 34 33 33 34 33 34 33 34 36 38 39 38 42 41 30 27 28 22 22 21 20 22 23 33 31 30 26
50 50 51 51 51 52 52 48 44 40 41 41 37 36 33 33 34 35 34 33 32 33 35 33 33 36 37 37 39 37 37 33 29 28 22 21 21 21 22 22 24 26 27 22
51 50 51 51 51 51 52 46 43 44 41 40 37 38 33 32 30 33 31 32 32 34 36 32 32 32 32 32 35 35 36 37 38 33 23 22 24 23 25 23 22 22 26 25
50 50 51 51 51 52 52 49 50 45 43 41 42 39 34 32 35 38 34 33 35 40 38 40 38 38 35 33 35 35 37 41 37 34 32 33 35 33 24 24 25 26 29 28
50 51 50 50 51 52 57 54 48 52 46 43 37 35 34 33 36 35 34 36 42 41 39 40 39 37 37 34 35 37 41 39 39 35 35 28 27 26 26 26 26 27 26 28
52 51 50 50 51 52 55 52 52 50 41 44 37 37 35 39 39 38 41 42 41 43 39 44 37 39 37 35 32 34 37 41 36 35 30 28 26 29 30 29 29 31 33 35
52 51 50 50 51 52 56 56 58 53 45 47 38 37 40 42 43 43 43 44 45 43 49 44 37 35 30 31 32 36 36 43 40 35 30 26 33 29 32 31 30 37 37 38
52 51 51 49 50 51 55 56 60 54 53 44 45 43 44 42 44 44 44 44 46 45 45 37 41 36 28 30 33 34 35 38 37 33 30 32 30 32 33 29 35 41 40 39
52 51 51 49 50 51 55 56 59 56 51 47 47 44 44 43 45 48 45 45 47 51 38 40 42 38 40 36 30 35 33 34 33 33 33 28 32 32 35 40 42 41 40 39
52 52 51 51 50 50 52 52 56 58 52 51 53 52 51 48 48 44 48 42 45 47 44 44 45 36 37 39 36 26 33 38 37 35 35 39 39 40 43 43 41 41 40 38
51 52 52 51 51 52 53 54 57 56 57 50 49 48 51 51 52 54 48 53 44 46 49 46 42 34 43 35 38 40 31 31 41 39 34 33 39 43 41 40 40 39 39 35
50 50 50 51 51 51 53 54 56 53 50 38 50 48 48 49 51 51 52 50 52 52 49 41 37 36 41 43 40 41 39 36 37 37 36 38 42 42 42 40 40 38 32 30
49 50 51 51 52 51 56 57 55 55 52 44 50 47 47 47 48 49 49 50 50 50 43 37 39 48 47 46 44 42 37 35 38 39 41 40 42 42 41 39 36 32 26 26
49 50 50 50 51 50 55 49 54 55 55 49 42 48 45 46 47 48 48 48 50 49 47 42 46 43 47 37 37 37 33 36 37 39 42 43 43 41 39 35 32 26 26 23
48 49 50 50 50 54 50 47 52 51 55 48 41 46 45 44 46 48 49 50 49 48 49 45 46 47 43 38 37 34 35 36 38 39 41 39 38 36 35 28 26 27 19 18
48 48 49 49 48 49 52 53 52 52 51 50 42 41 45 44 46 44 45 46 46 47 45 42 43 44 42 38 39 38 36 37 37 38 40 40 40 32 28 24 19 18 19 20
48 48 48 52 52 52 52 49 50 56 52 46 37 37 36 44 42 42 44 45 37 43 38 39 42 38 36 38 39 39 38 37 35 34 32 30 28 25 20 18 19 20 21 19
48 49 46 38 43 47 48 51 49 49 49 47 39 43 40 41 41 38 39 40 38 35 38 38 34 35 40 39 39 39 38 36 35 33 31 28 25 21 20 19 21 23 23 25
45 39 36 44 46 46 43 40 40 40 37 39 41 44 39 44 37 37 41 36 37 34 36 36 35 34 36 39 36 38 37 35 32 29 26 20 20 20 23 28 31 31 30 30
43 43 44 42 39 35 38 34 34 34 36 36 35 36 41 40 43 39 36 34 35 32 36 34 31 33 36 36 35 33 32 30 24 21 20 20 20 23 31 32 31 30 32 30
42 37 35 36 32 32 32 30 32 32 33 34 34 33 35 36 37 34 33 32 32 37 32 29 32 34 34 33 32 30 28 26 27 19 20 23 24 28 32 32 32 32 32 32
36 33 32 32 32 33 33 33 34 35 36 34 34 33 34 33 33 32 32 33 35 30 28 28 34 31 30 31 32 29 26 27 28 29 29 28 33 34 33 33 32 30 32 33
35 35 31 32 33 34 34 34 35 34 36 35 34 34 35 33 32 33 32 29 28 30 31 34 36 36 33 31 29 26 30 32 31 30 29 30 32 32 32 33 34 34 32 32
35 34 33 34 34 33 32 33 33 36 36 37 37 33 32 32 33 30 30 29 28 33 36 38 34 32 32 31 30 29 28 29 30 30 29 29 31 31 32 33 34 32 33 32
33 33 37 35 34 34 34 36 36 38 35 33 34 32 28 32 30 29 32 31 34 38 37 34 33 31 32 30 29 31 31 31 31 30 30 30 31 32 33 32 32 32 34 33

GFSNW_sfc_dewp_027.txt.gz
Dewpoint
50 49 50 50 51 52 52 53 40 57 59 38 43 39 39 35 32 37 37 37 31 33 30 32 32 35 36 35 36 31 32 32 26 26 28 28 28 30 30 27 25 28 27 24
50 50 50 50 51 52 55 47 50 56 57 35 38 40 37 36 33 33 36 35 36 36 36 32 38 38 40 39 39 38 36 30 27 26 30 32 26 27 30 34 30 25 18 21
50 50 50 50 51 52 53 51 42 48 50 47 42 40 36 37 39 38 36 35 36 37 35 36 37 38 41 41 38 41 40 32 28 26 25 24 24 23 24 31 27 27 27 28
50 50 50 51 51 51 52 51 44 42 37 38 41 40 37 36 37 39 37 36 36 35 32 34 37 39 39 41 40 39 37 31 32 32 26 25 24 23 24 24 25 24 25 27
50 50 51 51 51 50 52 50 48 43 39 37 39 39 35 36 35 36 35 35 35 37 36 37 35 37 36 36 36 37 38 32 30 28 30 29 26 27 29 27 26 26 27 27
50 51 51 51 51 52 53 51 51 49 45 36 40 38 38 37 39 40 40 38 40 37 38 39 39 39 37 37 36 36 38 32 28 27 32 31 26 29 28 27 28 28 26 30
51 51 51 50 51 52 57 55 54 45 37 43 40 39 39 39 37 37 43 43 40 40 40 37 38 36 34 37 35 42 34 32 30 23 25 11 31 29 29 29 29 30 32 35
52 51 51 51 51 51 55 55 55 46 36 45 41 38 40 42 44 43 43 43 43 41 43 36 27 30 24 30 35 36 40 32 26 27 25 26 28 31 31 29 31 38 37 37
51 50 50 49 51 51 56 55 57 51 41 41 44 39 41 41 41 42 43 45 46 47 38 30 23 25 28 30 33 37 39 35 28 23 21 15 28 32 33 33 27 39 39 39
51 51 48 50 50 51 56 55 56 55 45 47 47 43 42 45 44 41 43 43 41 46 33 33 30 28 33 29 29 28 28 31 28 22 21 27 34 34 36 25 28 40 39 39
51 51 50 50 50 51 55 54 56 54 47 47 50 50 46 45 46 39 43 39 40 37 36 33 32 30 31 30 33 31 27 27 27 29 27 21 36 36 28 35 41 40 38 39
52 51 51 50 50 51 52 52 55 57 52 50 52 50 51 51 51 46 45 40 45 44 37 34 35 33 35 32 26 34 29 33 30 30 28 35 38 38 42 42 40 39 38 39
53 50 49 50 50 51 53 55 56 55 47 48 48 48 50 50 51 52 44 44 46 46 48 39 39 33 35 27 31 29 32 37 32 33 35 37 41 41 41 40 39 39 40 40
49 49 50 50 50 51 54 55 56 52 47 37 45 48 48 49 50 50 50 49 50 50 45 38 37 32 41 33 33 33 35 37 34 33 36 41 42 41 41 41 41 40 39 30
49 49 50 50 50 50 55 56 56 55 51 39 40 48 47 48 49 49 49 50 48 45 38 35 34 34 36 33 34 33 39 35 33 30 38 38 41 42 41 40 39 34 28 28
49 50 50 51 50 50 55 50 54 53 55 44 36 46 45 46 47 48 48 49 48 47 40 36 41 45 38 35 34 38 38 38 38 40 43 42 42 42 41 38 32 29 27 24
48 49 50 50 49 52 49 46 50 49 52 40 36 39 44 44 46 47 49 47 46 45 42 37 36 38 41 34 34 37 39 36 41 42 41 39 41 38 36 30 28 26 22 23
48 49 49 49 48 49 50 50 50 50 48 44 36 37 37 44 37 39 44 39 43 44 41 39 36 38 36 35 39 39 38 38 40 41 41 40 39 37 30 24 22 22 22 22
48 48 49 51 49 46 49 48 49 53 48 38 34 32 29 42 39 38 38 43 35 41 35 36 39 34 34 38 39 39 40 37 37 38 38 39 38 25 22 21 23 23 24 24
48 48 46 38 42 46 49 48 41 42 42 41 34 37 35 40 36 35 35 34 34 33 35 38 33 34 38 40 40 38 39 37 36 34 32 30 26 24 23 23 27 27 26 27
45 39 36 43 46 45 40 36 37 37 35 37 38 37 37 40 34 34 36 33 34 31 31 34 32 32 35 37 38 37 36 34 30 27 25 23 24 24 26 28 28 26 27 27
43 43 44 41 38 36 35 34 34 35 34 34 34 35 38 36 41 35 34 33 33 29 36 32 29 31 37 35 34 34 32 28 24 24 24 26 28 29 28 27 27 28 29 25
41 38 35 36 32 31 32 30 31 32 32 34 33 33 34 35 36 33 33 32 31 34 31 27 28 35 36 33 27 23 23 25 25 23 26 26 26 28 27 27 28 26 29 29
35 33 30 32 30 31 31 32 32 33 33 33 33 32 33 32 32 32 30 31 32 29 24 22 33 34 33 33 28 25 22 24 22 23 25 25 27 28 27 27 27 24 28 29
34 34 29 30 31 32 32 33 33 33 34 34 33 33 33 32 31 31 30 28 27 28 28 31 34 32 30 29 28 27 26 26 26 27 26 24 26 27 28 29 29 30 27 28
32 32 30 32 32 32 32 32 32 34 34 34 34 31 31 29 30 28 28 27 26 29 32 33 31 30 30 29 28 26 26 26 27 28 28 27 25 24 28 28 28 28 28 27
32 31 34 33 33 32 32 34 33 36 34 31 32 29 27 30 27 27 30 28 30 32 31 32 30 29 28 27 27 28 29 29 29 28 28 28 28 27 27 28 29 30 30 27

GFSNW_sfc_dewp_030.txt.gz
Dewpoint
49 49 50 50 50 52 51 49 37 53 48 30 41 36 38 36 33 35 34 36 36 30 30 33 36 34 35 39 39 29 33 30 25 26 27 28 27 29 30 25 23 26 25 23
49 49 50 50 50 52 51 45 49 55 44 28 34 37 37 36 33 34 34 36 36 36 34 35 38 37 41 37 37 36 33 29 25 26 29 31 25 28 33 31 27 23 18 20
49 49 49 50 50 51 53 47 40 45 49 43 36 39 35 36 39 37 36 35 35 35 35 38 37 38 40 39 36 41 40 31 26 24 25 25 21 23 31 29 25 25 25 25
49 49 49 51 51 51 50 50 41 39 34 35 41 40 36 36 35 38 36 33 35 34 32 36 37 39 39 39 39 37 36 30 32 31 27 26 24 23 24 24 26 25 25 27
49 49 51 51 51 50 49 48 46 42 36 35 37 39 37 36 36 35 35 34 38 36 35 35 36 37 37 35 35 36 38 30 29 24 32 31 24 26 29 29 26 25 29 32
50 51 50 50 51 50 49 51 50 43 42 33 36 38 36 38 38 39 41 40 38 35 38 39 39 38 38 38 35 37 36 30 26 19 31 28 22 27 29 26 28 27 25 32
51 51 50 50 51 52 56 54 51 43 35 37 35 40 38 39 38 40 42 41 37 40 41 36 30 31 35 36 39 39 32 31 27 19 20 5 23 31 28 33 35 35 35 35
51 50 48 49 50 51 54 54 51 42 34 43 40 40 42 43 43 42 43 44 41 42 40 30 24 29 25 31 38 40 36 29 26 16 23 20 25 30 29 27 34 37 36 36
52 49 49 50 50 51 54 54 54 45 40 40 46 41 41 40 40 40 42 45 47 43 34 26 24 23 19 28 33 36 37 31 24 25 12 8 23 31 32 31 27 39 39 37
50 49 50 50 50 52 53 53 55 50 43 45 46 40 41 44 41 39 41 41 40 40 29 31 23 27 31 28 27 26 27 25 25 16 15 24 29 34 33 25 26 39 39 38
50 50 50 50 50 51 51 52 54 50 44 48 50 49 45 45 42 37 41 37 38 37 29 26 32 24 29 29 32 30 27 26 24 23 16 20 33 34 28 32 39 39 39 38
50 48 48 50 50 50 53 49 55 54 49 48 50 50 50 50 48 45 42 36 41 40 35 34 36 27 33 28 26 34 26 28 28 29 29 32 36 35 39 41 39 38 38 38
48 48 49 49 50 51 53 53 53 51 44 46 47 47 49 49 50 50 42 42 46 45 41 38 32 25 33 29 31 31 32 37 32 32 33 36 39 41 40 40 39 40 40 39
49 49 49 49 50 51 53 53 53 48 44 36 43 48 47 49 50 50 48 48 49 45 41 36 36 29 36 30 30 30 31 36 34 32 38 41 40 40 40 40 40 41 40 33
49 49 50 50 50 51 54 53 52 52 42 38 38 47 47 47 48 49 49 48 46 41 37 34 33 32 35 34 32 32 38 35 32 31 36 37 38 41 41 41 40 39 29 26
49 50 50 49 49 52 52 47 52 51 50 40 33 44 44 45 48 49 49 49 47 44 39 35 39 43 35 34 33 37 40 40 38 37 42 41 41 41 41 40 36 30 26 24
49 50 48 48 49 49 47 43 49 49 48 38 36 36 42 44 46 45 45 45 44 44 38 36 35 35 39 35 33 37 38 39 42 43 41 40 40 40 40 31 29 27 23 23
49 49 49 48 49 50 48 49 48 48 45 39 33 31 35 42 36 36 42 37 40 42 40 39 36 36 35 34 38 39 39 39 42 41 40 40 40 36 29 23 24 24 23 23
49 49 48 48 47 44 47 47 47 50 44 35 32 29 29 40 38 36 36 40 33 38 34 35 36 34 32 37 38 39 40 39 40 40 39 39 36 27 23 24 25 24 24 25
47 47 43 39 42 46 47 45 39 38 40 37 33 36 33 39 34 34 35 34 33 33 34 38 33 34 37 38 40 39 39 39 39 38 32 27 26 25 26 26 26 26 25 26
45 40 37 42 45 43 39 36 33 36 35 36 36 35 36 38 34 34 33 32 33 30 29 32 31 31 33 37 37 35 32 31 31 30 28 26 27 28 28 28 27 26 26 26
43 42 43 41 37 35 35 34 34 34 34 34 34 35 38 36 38 34 34 33 32 28 34 32 29 31 34 31 32 30 31 32 32 32 32 30 28 28 26 25 24 25 27 25
42 38 35 36 33 33 33 32 31 32 32 34 33 33 33 35 36 33 33 32 31 33 31 29 29 36 29 26 24 24 28 31 30 26 26 26 25 26 24 25 25 25 28 29
35 34 30 32 29 30 30 32 32 33 33 33 33 32 32 32 32 32 31 31 31 29 20 20 33 37 36 27 25 22 22 25 25 25 25 25 27 27 26 24 24 22 26 28
33 30 28 28 31 32 32 33 33 33 34 33 33 32 33 32 31 31 29 27 25 27 27 31 32 31 30 29 29 26 26 25 25 25 25 23 24 25 26 27 27 28 25 25
32 31 29 31 31 32 32 32 32 34 33 34 33 31 30 26 29 27 27 26 24 27 31 32 32 32 34 34 30 26 26 26 27 27 27 27 24 22 27 28 27 25 25 25
30 31 33 32 32 32 32 33 33 36 33 31 31 25 24 29 24 23 29 26 29 31 32 33 31 29 28 27 29 29 28 28 27 27 27 27 28 25 26 26 28 28 29 27

GFSNW_sfc_dewp_033.txt.gz
Dewpoint
50 50 49 50 51 51 51 45 35 51 42 30 38 37 39 38 32 34 35 35 33 30 31 34 34 33 35 39 37 27 33 28 25 25 28 30 27 29 27 21 21 25 23 22
49 49 50 49 50 51 50 44 49 55 37 26 33 35 37 37 32 32 34 34 36 36 36 33 37 37 40 35 36 33 32 27 23 24 28 29 25 29 32 29 27 23 18 20
49 49 49 50 50 51 51 46 40 44 47 37 32 35 36 35 38 36 35 34 36 35 35 38 36 37 39 37 34 41 37 32 24 22 23 26 20 23 30 28 24 24 23 22
49 49 49 49 50 51 50 47 39 40 35 39 41 37 36 35 33 36 35 33 34 34 32 36 36 38 38 36 38 37 33 28 30 28 27 25 23 21 26 26 26 23 24 26
49 49 50 51 51 51 48 48 42 41 34 35 38 39 37 35 35 34 34 33 38 36 33 34 35 36 34 30 34 36 36 28 28 24 31 30 23 22 24 25 25 28 30 32
49 50 51 50 51 50 47 48 49 42 39 35 35 37 36 36 37 41 40 38 36 33 37 39 39 38 38 36 34 37 33 28 23 15 28 22 16 21 27 27 27 27 30 31
50 50 50 50 50 50 53 53 47 41 35 32 32 39 38 38 37 38 41 39 36 38 39 32 31 31 37 39 39 37 31 29 23 16 19 6 19 28 29 27 34 33 34 34
51 48 48 48 50 51 56 53 48 40 34 40 39 41 42 42 42 42 42 43 41 41 33 28 22 26 25 30 37 37 35 28 25 16 19 17 19 30 32 27 27 36 34 35
47 48 49 50 50 51 55 53 50 44 41 40 43 41 41 38 38 39 41 45 45 39 30 25 19 17 17 27 33 36 34 28 23 24 9 6 19 31 32 30 26 37 36 35
48 49 50 50 51 52 52 53 53 47 42 45 45 40 39 42 39 38 40 40 39 36 27 22 23 25 27 27 26 26 27 24 22 15 14 22 26 32 33 25 22 39 38 37
49 48 49 50 50 52 52 52 53 48 44 47 48 48 44 43 41 36 39 37 36 32 27 24 27 21 29 28 30 29 29 26 26 21 17 19 30 32 28 31 37 39 39 38
48 48 49 49 50 51 51 51 54 53 48 47 49 49 49 48 42 43 40 37 38 37 32 29 32 25 32 26 24 32 25 27 28 28 28 31 33 34 35 39 39 38 39 39
48 48 49 49 51 51 52 52 51 48 44 46 46 46 49 48 50 48 40 41 43 41 39 37 31 23 31 28 29 28 32 34 29 30 30 32 34 39 40 40 39 39 39 40
49 49 49 50 51 51 52 51 50 45 41 36 42 48 46 48 50 50 47 47 45 42 39 33 32 24 34 28 29 31 32 35 32 31 34 39 40 40 39 39 40 40 40 37
50 49 49 49 51 51 52 51 50 50 39 38 37 45 46 46 49 49 48 46 44 40 36 33 33 31 33 34 33 33 36 34 31 30 34 36 35 40 40 39 40 39 30 26
49 48 48 49 50 51 46 43 50 50 47 39 34 43 43 45 48 48 48 48 45 41 38 35 37 41 34 33 34 38 39 39 36 35 37 39 39 40 41 40 40 31 26 24
49 48 49 48 48 50 44 39 47 48 46 38 36 34 40 43 44 43 44 43 43 43 39 35 36 34 39 33 31 35 37 38 39 41 41 38 39 39 41 35 29 28 24 24
49 48 48 49 49 49 47 48 47 47 41 37 32 30 33 41 36 37 41 37 39 39 39 38 34 37 35 34 37 39 39 40 41 42 40 41 40 32 25 24 24 24 25 25
49 48 48 47 46 43 45 46 47 46 42 34 32 30 29 39 38 37 37 39 34 38 34 35 36 33 33 37 37 38 39 39 40 40 39 37 30 27 29 30 31 27 25 25
46 47 42 39 43 46 46 43 38 37 36 37 33 36 33 39 34 34 32 34 33 29 33 38 33 34 35 36 37 38 39 38 40 36 30 30 29 29 31 33 28 26 25 26
43 40 37 43 44 42 38 34 32 36 35 36 36 35 35 38 34 32 32 31 32 29 27 33 29 31 33 33 32 32 32 32 32 32 33 35 35 34 32 28 28 27 26 25
42 41 42 39 36 35 35 33 34 34 32 34 34 35 37 36 36 34 34 32 32 28 33 32 29 31 28 29 33 35 36 36 36 37 36 36 35 32 28 24 24 24 27 26
42 38 35 37 34 33 33 31 32 32 32 34 33 33 33 35 35 33 33 32 30 33 32 29 31 31 34 35 35 36 36 35 35 34 30 27 26 26 25 26 26 26 27 28
36 34 32 32 30 30 30 31 32 32 33 33 33 32 33 32 33 32 31 32 32 29 23 19 32 35 36 27 26 23 24 26 26 26 25 26 27 27 25 24 25 23 26 27
33 32 28 28 31 32 32 32 33 33 34 33 33 32 33 32 31 31 29 25 22 24 23 30 32 33 30 31 32 25 25 26 26 25 26 24 24 25 26 27 27 27 23 24
32 31 30 31 31 31 32 32 32 34 33 33 33 31 30 28 29 26 25 24 19 20 29 32 31 32 33 34 33 26 27 27 27 27 27 27 25 24 27 27 26 23 22 22
30 31 33 32 31 32 32 33 33 35 33 30 30 20 22 29 24 24 29 24 28 31 31 33 33 32 32 30 27 28 27 26 26 26 27 27 27 24 25 25 27 28 28 24

GFSNW_sfc_dewp_036.txt.gz
Dewpoint
50 50 49 49 50 52 51 41 35 52 41 32 37 35 38 40 31 35 35 33 30 29 31 33 32 32 33 38 36 27 32 28 25 24 27 30 27 27 25 19 17 25 23 21
49 49 49 49 50 52 49 46 48 53 37 29 32 34 36 36 31 33 33 34 34 36 35 32 35 36 38 34 35 30 30 26 23 22 23 27 25 30 29 27 26 23 18 18
49 49 49 49 50 52 49 45 41 44 44 36 31 31 33 34 37 35 34 34 36 35 36 37 35 36 38 36 34 40 36 29 24 21 19 25 20 26 29 26 23 23 23 20
49 49 50 50 50 51 50 44 40 42 37 39 32 30 33 33 32 35 34 33 34 34 33 35 35 37 36 34 39 37 31 27 29 27 28 25 21 21 28 25 24 21 21 24
49 49 49 49 50 51 49 46 39 37 35 41 37 36 35 33 35 34 32 32 37 35 33 32 34 36 33 26 35 35 34 28 27 25 30 28 25 22 23 26 24 26 27 26
49 49 49 50 50 50 46 48 47 39 37 37 35 37 37 36 38 40 39 36 35 33 36 38 39 38 37 34 34 35 31 28 24 20 26 20 16 21 23 25 28 26 26 26
49 50 50 50 50 50 50 50 46 41 32 32 37 38 37 37 36 37 40 37 34 36 37 34 31 32 37 39 38 36 29 27 21 14 17 3 15 26 26 26 27 29 31 32
49 49 49 50 50 50 53 52 47 40 32 33 35 39 41 41 42 41 42 43 41 38 30 28 26 25 27 30 36 33 32 27 22 15 17 14 14 28 30 27 25 34 32 34
48 48 48 49 50 50 54 52 49 44 38 37 40 40 40 37 37 38 40 45 41 35 29 25 21 20 23 25 32 36 31 27 23 19 9 4 17 28 32 30 25 33 35 34
48 50 50 50 50 51 54 53 50 46 42 44 43 39 39 40 38 37 39 40 37 34 26 21 21 21 24 24 24 26 29 26 19 13 12 19 23 30 32 24 23 36 36 35
48 48 49 50 51 51 54 53 52 47 44 46 47 47 42 41 40 36 39 37 36 31 27 24 25 21 28 28 28 30 29 28 28 22 14 18 28 32 27 31 33 37 37 36
48 48 49 50 51 51 53 53 53 51 47 46 48 48 48 47 41 42 39 37 37 36 30 26 27 26 31 26 23 31 25 27 26 27 27 29 30 32 35 35 35 37 38 37
48 48 50 50 51 50 53 52 48 47 43 45 46 45 48 48 48 46 39 39 41 39 37 32 29 23 29 25 28 28 32 31 28 28 27 31 33 34 39 39 38 38 39 39
48 49 50 50 50 51 51 50 48 44 42 36 41 47 45 47 50 49 46 44 42 40 37 32 30 24 32 27 28 28 31 32 30 30 32 34 37 39 37 39 39 39 40 39
48 49 50 50 50 51 51 50 50 48 38 38 36 44 45 47 49 47 46 44 42 39 36 34 32 29 32 34 32 32 34 32 30 28 31 32 32 37 39 39 40 39 33 29
47 48 49 49 49 48 43 42 48 49 45 40 34 41 42 44 46 46 46 46 43 40 37 34 36 39 34 33 34 36 36 37 34 32 37 37 38 39 40 39 39 31 28 26
48 48 49 49 49 50 42 38 47 47 45 38 35 34 39 41 43 41 42 42 41 41 38 34 36 35 37 33 31 34 37 38 38 39 39 37 37 38 40 34 28 26 25 27
48 48 48 48 48 48 46 47 46 46 39 36 32 31 33 40 37 37 41 37 38 39 39 37 34 37 34 33 36 38 39 40 40 40 39 39 34 26 25 25 28 32 33 31
48 47 47 47 46 44 45 46 46 44 40 33 27 29 28 39 37 36 37 38 34 38 34 36 36 33 33 35 34 36 37 37 38 38 31 28 29 32 34 35 35 34 31 27
46 46 42 37 43 45 45 42 37 37 36 38 32 35 33 38 34 34 33 34 32 27 30 37 33 33 34 32 32 32 33 36 39 31 30 32 34 35 35 35 34 32 29 27
43 40 37 43 44 42 36 32 32 35 29 36 35 35 34 38 34 32 31 31 32 29 27 32 30 30 32 33 34 35 36 36 35 35 36 35 35 34 33 32 30 27 26 25
42 42 41 39 37 35 33 32 33 32 28 34 34 34 37 35 35 34 34 31 31 27 32 32 28 28 32 36 36 37 37 37 37 37 36 36 36 35 30 24 23 24 27 26
40 36 33 34 32 33 31 31 32 32 33 34 33 33 33 35 35 33 33 31 30 33 31 29 30 30 36 37 36 35 34 34 34 33 32 29 26 26 25 26 26 26 27 28
35 33 33 32 31 31 31 32 32 32 32 33 33 32 33 32 33 32 32 31 31 29 25 21 32 34 31 25 26 25 25 25 25 24 25 26 27 27 26 25 24 23 25 27
33 33 28 28 30 31 32 32 33 32 34 33 33 33 34 32 31 31 29 24 19 21 19 29 31 32 31 32 31 25 25 23 25 25 25 23 23 24 25 25 26 26 21 21
32 30 29 31 31 31 32 32 32 34 33 33 33 31 28 28 26 23 21 21 15 21 29 29 32 32 34 34 34 27 27 27 27 27 26 26 23 22 26 26 25 20 19 20
30 31 33 32 32 32 32 33 33 35 33 30 30 22 22 27 21 21 25 20 26 31 32 33 33 33 34 34 29 28 27 26 27 27 27 28 28 24 25 26 28 28 28 24

GFSNW_sfc_dewp_039.txt.gz
Dewpoint
51 51 51 50 49 50 51 45 38 54 45 35 37 33 32 40 36 36 36 33 32 31 33 33 32 32 34 39 37 30 31 31 28 25 27 30 28 28 28 24 19 26 26 21
51 50 50 49 49 52 49 41 48 55 42 33 35 35 36 37 33 34 34 36 36 38 36 33 35 37 39 36 34 34 33 30 26 24 25 28 27 30 28 27 28 25 30 20
50 50 50 49 49 52 50 48 43 47 41 38 33 33 34 34 38 37 36 36 38 38 37 38 36 37 38 38 36 40 37 29 28 25 23 27 24 30 27 28 28 24 25 21
50 50 49 49 49 52 51 44 42 44 38 37 33 33 35 34 34 37 36 35 36 36 35 36 36 37 35 35 40 38 34 29 28 27 28 26 22 23 29 26 26 26 23 23
49 49 49 49 49 51 51 43 40 39 38 40 34 37 35 34 36 37 35 35 37 37 35 34 36 36 34 29 37 36 34 31 28 27 29 28 25 24 24 28 26 25 26 25
49 49 48 48 49 50 48 50 45 39 37 38 33 35 37 35 39 41 39 37 37 36 38 39 39 39 38 35 36 35 32 32 28 25 24 21 23 24 25 25 26 27 25 26
49 48 48 48 50 50 50 50 45 39 33 37 33 36 39 37 38 38 41 39 37 38 40 37 35 35 38 37 35 35 30 27 24 24 21 17 20 27 25 25 26 27 29 32
48 48 48 48 50 50 54 52 47 39 33 34 35 39 41 41 42 42 42 43 41 39 34 35 31 31 33 33 35 31 31 29 25 26 19 17 15 22 28 29 25 30 29 32
48 48 49 49 50 50 54 52 50 43 37 35 38 41 41 39 39 40 43 43 41 36 32 32 29 28 28 25 32 35 30 30 31 24 21 17 20 23 32 30 28 30 34 35
48 48 48 49 50 50 54 53 50 48 43 46 43 41 40 41 40 39 40 39 40 37 32 32 30 28 25 25 25 30 32 31 30 21 26 24 24 26 32 24 26 33 36 36
47 48 49 50 50 50 53 52 53 49 45 47 49 48 42 41 41 39 41 39 39 35 34 35 30 32 30 28 28 32 30 31 30 24 25 24 28 32 32 35 34 35 38 37
48 49 49 49 49 50 53 52 54 51 48 47 49 48 49 49 44 43 41 40 39 39 35 32 31 32 33 29 29 32 28 32 31 29 30 33 31 35 36 36 35 37 38 38
48 49 50 49 50 51 52 53 51 50 46 46 46 46 48 48 49 48 41 40 42 38 38 35 33 32 33 31 31 32 32 31 32 31 30 31 34 35 36 39 39 39 40 40
49 49 50 50 50 51 52 50 50 48 44 37 43 47 46 48 50 50 46 43 41 40 38 35 34 34 33 32 31 33 32 33 31 31 33 34 34 38 39 38 40 40 40 40
49 50 50 50 50 50 51 51 50 49 43 39 40 44 45 46 48 46 45 43 43 41 38 35 36 33 35 35 34 33 34 33 33 33 33 33 34 37 41 40 40 40 36 30
49 50 50 50 49 49 48 44 48 47 46 42 37 42 42 44 46 45 45 45 43 41 40 35 37 40 36 34 33 35 37 38 37 35 38 37 39 41 41 40 36 30 28 27
49 48 48 49 48 48 40 38 46 46 45 40 36 37 39 41 43 43 43 43 42 42 40 36 38 39 38 34 33 37 38 38 40 41 41 39 39 37 30 28 29 33 34 34
48 48 48 48 48 48 47 47 46 45 38 38 34 33 36 41 38 38 42 39 40 40 39 38 36 38 36 35 35 34 35 36 39 39 36 32 29 30 31 34 35 34 33 32
47 47 47 47 46 44 46 46 45 44 40 33 30 32 32 40 37 37 39 39 34 38 35 37 38 34 33 31 31 32 34 34 36 31 32 34 35 35 34 34 33 33 32 32
46 46 42 39 43 45 44 41 39 38 37 37 32 35 34 39 36 34 36 35 34 33 34 37 34 33 31 34 35 35 35 35 32 33 34 34 34 34 34 34 34 33 32 32
44 41 39 44 44 41 36 34 34 34 32 36 35 36 35 38 36 34 34 33 33 30 30 34 32 31 31 35 35 35 35 35 35 36 35 36 36 34 34 33 33 32 30 27
43 43 42 40 38 35 34 33 34 32 32 34 35 35 38 36 36 34 35 31 32 28 34 33 28 29 35 36 36 37 37 37 36 35 35 35 35 35 33 29 26 26 28 29
42 38 37 37 34 32 27 29 32 32 33 34 34 33 34 36 37 34 34 32 31 34 32 30 30 33 36 36 33 33 33 34 34 33 32 28 26 27 28 28 28 28 28 28
34 32 32 28 32 32 32 32 33 32 33 33 34 33 34 33 34 33 33 31 32 30 28 25 31 34 33 33 30 26 25 26 26 25 26 26 27 27 27 25 25 24 27 28
34 33 28 29 31 32 32 32 33 33 34 34 34 33 34 32 32 31 30 27 24 24 24 30 31 29 27 27 26 25 26 25 27 27 27 25 25 26 26 28 28 27 26 26
33 32 30 32 31 31 32 32 32 34 33 34 34 32 31 28 28 26 25 24 21 25 30 31 32 32 33 33 33 28 28 27 27 27 28 27 26 26 27 28 28 26 26 24
31 31 33 32 32 32 32 33 33 35 34 31 30 25 25 28 24 24 27 25 26 31 32 32 32 33 34 34 32 30 28 28 29 29 28 28 28 27 25 23 20 23 24 24

GFSNW_sfc_dewp_042.txt.gz
Dewpoint
49 52 52 51 51 50 51 47 37 59 57 44 46 36 31 37 34 39 31 28 26 26 29 29 26 27 29 37 33 30 32 32 31 26 28 29 28 27 26 23 19 29 28 13
50 51 52 50 50 51 49 42 47 55 51 42 41 34 31 36 31 33 33 31 31 34 32 31 33 34 37 36 33 33 32 31 28 26 27 30 27 28 27 27 29 24 30 14
49 50 51 50 50 51 50 42 44 52 48 40 37 33 30 32 38 35 35 35 37 37 35 37 36 36 36 37 35 40 36 32 28 25 22 26 26 27 27 24 26 19 21 11
49 50 51 50 49 51 52 45 39 43 43 40 35 34 30 28 33 36 36 35 34 34 35 35 36 36 34 36 40 38 35 30 28 26 25 25 23 23 27 24 23 25 15 12
49 50 50 49 49 50 51 44 42 43 43 39 35 34 32 28 34 35 33 34 36 36 35 32 35 35 34 34 37 37 35 32 31 28 28 27 25 24 23 26 25 24 22 20
49 49 50 49 49 51 51 52 45 42 40 38 34 32 32 29 38 40 38 37 38 38 38 40 41 39 36 34 37 37 35 35 31 24 25 24 32 27 24 22 25 26 24 24
50 50 49 49 49 51 52 52 44 44 39 36 30 32 35 35 36 38 39 39 39 41 42 40 39 39 37 35 35 35 34 33 33 31 27 29 15 23 22 24 24 24 25 25
49 49 49 49 49 50 55 55 47 45 41 36 33 35 40 42 42 42 41 42 41 42 38 39 36 39 41 37 34 32 31 32 32 36 21 18 12 17 19 22 18 25 25 24
49 48 48 48 49 50 53 57 54 48 45 40 32 39 42 41 42 43 42 41 41 38 40 41 38 34 31 31 33 34 31 33 35 31 34 32 21 27 32 30 24 29 30 31
48 48 48 48 49 50 55 57 55 49 48 41 43 38 41 43 43 43 40 39 40 39 43 43 40 35 28 28 31 34 37 37 37 33 36 28 23 24 33 24 24 31 33 33
48 48 48 48 48 50 54 57 56 52 50 48 49 46 43 43 44 44 42 40 42 43 44 44 38 41 32 29 27 31 32 36 36 33 35 30 26 32 31 34 35 33 36 36
48 48 48 49 49 50 53 55 56 54 51 49 51 50 50 49 45 44 43 43 41 42 43 43 41 39 37 36 33 31 31 33 34 31 31 32 32 34 37 37 37 37 38 37
48 48 49 49 50 50 53 55 55 55 52 48 49 48 49 50 51 51 44 46 44 41 44 43 44 38 39 37 35 34 32 32 34 32 27 30 33 34 35 36 37 37 38 39
48 48 49 49 49 51 52 53 54 55 51 42 47 48 48 49 51 50 48 46 45 43 44 47 42 42 36 38 35 35 33 34 32 32 31 30 32 36 39 40 41 41 41 41
48 49 49 49 50 50 53 53 52 53 50 44 48 48 47 48 47 46 46 45 44 45 46 42 44 40 40 40 39 38 33 33 35 35 35 36 35 40 42 41 41 41 38 36
49 49 50 49 49 49 52 48 51 48 51 50 43 46 46 47 48 47 47 47 46 45 44 40 40 39 42 39 37 37 39 39 40 37 40 40 42 38 39 36 36 34 32 34
49 49 48 48 48 49 44 41 48 46 48 48 42 45 44 45 47 46 46 47 46 46 43 41 42 41 42 39 39 36 36 36 40 41 41 39 34 33 34 35 35 35 33 34
49 49 48 48 47 48 49 48 46 46 43 46 41 40 46 44 44 43 44 44 45 43 41 41 40 41 42 39 34 34 35 36 35 34 35 34 34 35 34 33 33 34 35 35
48 48 48 52 50 51 49 45 46 48 45 42 37 40 38 42 40 41 44 43 39 41 41 40 41 38 36 32 32 34 36 36 34 36 36 35 33 33 34 34 34 35 35 32
46 50 48 47 48 45 45 46 46 45 44 42 35 39 37 40 41 38 40 40 39 37 38 39 37 33 33 34 35 35 36 36 35 34 33 35 35 36 35 34 33 31 30 33
50 48 44 48 45 46 43 41 40 40 38 39 38 40 38 40 38 36 39 36 39 35 36 37 35 32 32 35 35 35 36 36 35 35 36 36 35 34 33 33 33 31 29 28
48 48 46 46 42 42 37 35 38 37 35 37 38 38 39 39 40 38 37 35 35 32 35 36 31 31 35 36 36 36 36 35 34 34 34 34 33 31 27 26 26 28 29 32
47 44 40 42 39 36 36 32 35 33 35 36 36 35 39 39 39 37 37 34 33 36 33 30 31 35 36 36 35 34 34 34 33 29 26 26 27 28 29 30 30 34 29 30
41 39 34 35 35 34 35 35 35 34 35 36 38 35 37 37 37 35 34 33 35 32 30 29 31 34 35 32 30 27 25 30 27 26 27 28 28 28 31 32 32 32 30 30
35 37 31 31 32 33 33 34 35 35 36 38 38 37 38 34 33 34 34 31 29 29 29 32 33 34 35 31 26 25 27 31 30 27 29 32 32 31 30 31 28 26 28 27
34 34 32 33 33 32 33 33 33 36 35 37 37 34 34 32 34 32 32 31 29 31 33 33 32 32 33 28 29 29 27 27 29 29 30 30 30 30 28 25 24 25 26 24
34 32 34 34 33 32 33 34 33 35 34 33 36 32 30 32 31 30 31 32 33 33 32 32 33 32 33 33 31 32 30 30 30 30 28 28 26 24 21 19 17 18 20 22

GFSNW_sfc_dewp_048.txt.gz
Dewpoint
48 49 50 50 52 51 51 47 38 52 56 43 38 38 38 36 35 31 29 28 22 21 20 20 19 18 21 27 26 26 27 27 29 24 23 24 24 24 23 35 25 31 35 25
47 48 49 50 51 51 51 42 46 56 53 36 37 36 37 34 34 32 30 31 26 25 23 23 22 22 36 30 28 28 30 29 29 22 23 27 25 21 20 25 33 29 35 25
47 48 49 49 51 51 52 42 43 50 52 42 34 34 36 35 36 31 28 29 27 25 26 26 26 24 36 36 33 41 41 29 25 26 20 24 26 25 21 25 36 31 28 19
46 47 49 49 50 51 51 48 41 46 43 44 38 39 35 32 32 33 31 29 27 25 27 25 25 26 37 36 38 35 34 27 22 19 20 20 24 24 21 20 24 28 27 19
45 47 48 49 50 51 49 45 42 45 40 42 40 36 38 33 32 29 31 31 27 26 28 26 25 28 36 33 37 35 35 32 33 31 28 25 25 23 22 21 21 18 21 20
45 47 48 49 49 51 48 45 49 48 42 42 38 37 39 36 33 32 29 32 32 32 32 35 39 37 37 34 37 37 36 38 37 34 28 26 29 28 23 21 21 22 23 25
46 48 48 49 49 50 49 45 50 49 41 39 35 35 38 36 33 34 33 36 35 39 43 41 39 38 37 36 36 38 38 40 42 37 32 28 23 19 16 19 17 16 16 20
47 47 48 49 49 50 50 50 53 51 44 37 35 36 39 38 36 37 41 41 43 45 44 42 39 41 39 36 32 34 36 40 39 37 29 25 22 17 19 20 20 23 22 22
46 47 47 48 49 49 50 51 53 54 49 41 33 37 39 38 39 43 44 45 48 47 48 46 37 36 31 30 31 29 29 40 41 36 35 30 29 24 24 23 27 24 24 27
47 47 47 47 48 48 47 49 52 52 49 43 39 38 39 40 44 46 44 43 44 45 50 41 43 39 28 32 35 36 39 41 37 36 37 35 27 26 28 27 34 33 31 31
46 47 47 47 47 47 47 47 51 50 52 46 44 41 40 39 45 44 47 43 44 49 45 46 46 44 41 35 31 37 37 39 36 41 35 32 25 26 29 38 37 35 35 37
46 47 47 47 48 49 49 47 52 54 51 52 53 51 51 50 51 47 47 44 44 47 45 48 50 41 40 43 37 30 35 36 39 37 37 37 30 33 36 37 37 38 39 37
46 47 47 48 48 48 49 49 53 57 52 49 47 49 51 51 52 55 47 51 45 47 51 50 50 40 47 39 43 41 32 34 39 36 27 28 32 37 40 39 40 39 40 41
45 47 48 48 48 49 49 50 54 56 54 47 48 50 48 50 51 51 53 52 54 53 53 53 43 43 42 47 41 42 35 34 31 33 29 34 38 42 41 41 42 41 39 37
45 47 48 49 49 49 50 53 56 57 54 45 48 48 48 48 49 48 50 52 51 51 50 42 48 46 47 47 46 45 34 33 40 41 40 40 39 38 39 38 37 36 34 34
48 48 48 48 48 49 52 49 55 57 56 49 45 49 48 47 47 47 49 49 50 48 48 48 45 43 48 42 43 37 38 38 40 39 40 40 38 37 37 37 37 37 36 36
47 47 48 48 49 52 51 48 50 49 55 50 42 44 47 48 48 48 48 51 49 48 47 46 46 44 44 41 43 38 37 37 39 38 39 37 38 36 37 36 35 36 34 33
47 48 48 49 49 49 51 51 47 49 49 51 41 39 47 48 49 47 48 50 49 46 43 45 44 44 47 43 37 36 36 36 36 37 38 38 36 36 35 34 34 33 34 34
48 49 49 52 52 51 49 45 47 54 51 46 38 38 38 45 44 46 47 47 41 45 43 43 44 40 39 38 36 36 37 37 36 36 36 35 34 34 33 33 33 33 32 31
48 51 49 43 49 45 46 49 49 49 47 44 41 43 40 43 44 42 42 44 41 39 41 42 40 36 35 36 36 37 38 37 37 35 34 34 33 33 33 32 32 30 27 27
53 49 44 48 46 48 47 42 43 44 40 40 41 42 41 43 40 38 43 39 40 37 37 40 36 34 34 35 35 37 37 37 36 36 35 34 34 34 33 29 29 31 31 31
50 49 49 49 46 45 38 36 40 39 36 39 39 40 40 42 43 41 41 37 38 34 38 36 34 34 34 35 35 36 37 36 35 34 33 33 31 29 28 29 30 32 32 31
50 47 41 44 39 36 35 33 35 34 36 37 39 37 41 41 41 39 38 34 36 39 35 32 34 34 35 35 34 35 35 35 33 30 28 28 30 31 32 32 33 32 31 29
44 38 34 36 34 33 34 35 35 34 35 38 39 37 39 40 36 37 34 35 35 32 30 32 34 35 35 34 33 33 30 31 29 28 29 31 31 31 31 30 29 27 25 25
37 37 31 31 32 33 33 34 35 35 39 41 40 40 38 36 34 37 34 32 31 32 33 34 35 36 36 34 32 29 31 31 30 30 32 32 31 30 27 25 25 26 25 24
35 34 32 33 33 32 33 33 33 37 39 42 43 37 34 33 35 34 33 32 31 33 34 34 36 36 34 31 30 30 29 31 31 32 32 31 30 28 25 23 21 25 24 21
34 32 33 33 33 31 32 33 34 37 38 35 38 33 32 35 33 31 34 32 33 34 34 35 36 34 32 31 33 32 32 32 32 32 31 29 26 25 22 20 15 16 19 21

GFSNW_sfc_dewp_051.txt.gz
Dewpoint
46 48 49 51 50 51 51 49 42 48 53 43 42 39 37 39 37 38 38 33 35 33 25 26 23 24 25 28 31 28 33 34 34 32 34 32 25 28 30 26 22 28 27 24
45 46 49 50 50 51 51 45 44 52 49 33 37 37 36 37 36 36 36 34 35 36 30 27 27 27 40 32 31 30 35 29 24 27 27 31 27 25 24 27 32 26 23 24
45 45 48 49 50 51 52 45 40 48 49 37 33 35 32 34 38 38 36 34 34 34 30 30 31 37 40 40 38 41 38 32 28 25 23 26 26 26 26 26 27 26 26 26
46 45 48 47 50 50 51 47 40 45 42 42 38 34 33 33 36 39 37 35 33 33 29 27 31 37 39 39 40 37 34 28 28 25 25 28 26 27 26 25 27 26 27 25
44 45 47 47 49 50 48 43 41 46 44 43 42 38 32 33 34 36 35 35 35 32 30 30 28 34 37 35 38 35 35 31 30 31 32 29 27 26 26 25 24 22 24 23
42 42 44 47 48 49 44 46 46 45 41 42 41 38 34 32 35 36 35 34 35 34 31 36 36 38 39 38 38 35 36 34 31 29 27 26 23 26 25 25 25 25 23 25
41 42 43 47 48 48 47 45 47 46 39 42 40 36 36 35 35 36 36 33 35 39 43 42 42 40 38 40 39 39 37 36 32 28 26 16 27 24 19 20 22 23 23 28
42 43 45 46 47 49 44 48 49 46 36 40 40 36 36 34 37 39 38 42 46 44 43 41 37 36 32 35 38 37 41 37 31 25 25 27 25 23 24 23 24 26 25 26
43 45 46 45 47 49 47 45 51 50 45 41 40 37 36 36 37 40 46 49 50 49 45 36 31 31 32 32 31 37 36 38 30 29 24 17 29 25 27 26 24 31 31 33
46 45 45 46 48 48 48 46 50 48 45 48 42 36 34 38 43 45 45 47 47 50 36 36 31 31 34 31 31 29 30 30 27 25 24 30 34 29 32 20 26 34 34 35
45 46 47 48 48 49 48 46 48 47 46 47 50 40 37 39 45 41 45 42 46 45 37 38 33 31 32 33 37 34 31 31 27 31 31 26 31 29 27 36 36 37 36 38
45 46 47 48 48 48 47 42 48 50 46 47 50 52 51 43 46 45 46 43 44 45 42 40 38 37 34 32 28 36 32 37 34 34 33 38 37 38 40 40 39 39 40 41
46 46 47 47 47 47 46 44 49 49 46 46 48 50 51 51 51 52 44 45 48 46 50 45 41 36 37 31 32 33 35 36 35 31 34 37 41 42 41 41 41 40 38 38
46 46 47 47 47 47 47 46 49 50 46 40 47 52 50 51 53 54 51 48 53 52 50 41 38 36 42 34 36 35 36 34 33 32 40 40 40 41 42 40 39 35 36 35
46 47 47 47 48 48 49 48 50 52 47 43 46 50 49 49 51 52 51 52 51 49 40 36 38 42 40 38 36 33 36 35 31 33 40 39 37 39 39 37 36 36 35 34
45 47 47 48 48 48 48 44 50 51 52 48 38 48 47 49 49 49 49 50 50 49 43 37 42 43 39 33 30 37 39 41 41 40 38 38 37 37 37 37 36 35 34 34
44 45 47 48 48 49 48 47 50 51 53 46 38 40 47 49 49 48 49 50 48 47 43 40 40 41 41 36 32 38 40 38 38 39 38 36 37 36 36 35 34 34 33 33
46 46 48 48 48 49 48 51 49 49 51 47 37 37 42 47 42 41 48 45 44 43 42 41 36 39 34 32 37 36 37 37 37 37 38 36 36 35 34 34 34 33 33 34
47 48 48 48 49 48 50 50 46 50 48 38 35 36 35 45 43 42 43 43 37 43 37 38 38 35 34 37 36 37 37 37 36 36 35 34 34 33 33 34 33 33 31 29
48 48 49 42 48 48 47 48 43 44 43 41 36 41 36 42 38 37 37 37 36 34 36 40 35 33 36 36 37 38 37 36 36 34 34 34 33 33 33 33 31 29 30 30
49 47 41 47 48 47 42 36 35 38 34 37 39 39 38 42 36 35 36 35 34 29 32 33 32 32 36 38 37 38 37 37 36 35 34 34 34 32 30 31 32 31 30 30
49 47 49 48 45 39 34 33 34 34 33 36 36 37 40 38 43 34 36 33 32 29 36 34 28 33 35 36 37 37 37 36 36 35 35 35 32 30 31 31 30 29 28 27
48 43 38 41 35 33 28 28 32 32 34 36 35 34 35 37 38 35 35 33 29 31 30 27 31 34 35 36 36 36 36 34 32 31 31 31 31 31 31 31 30 27 25 25
39 36 32 33 32 30 30 32 33 33 33 35 36 34 34 34 34 33 31 33 33 28 23 26 33 35 34 34 34 33 31 30 30 31 30 29 29 28 27 25 24 24 23 23
33 33 29 29 31 33 33 33 33 34 36 36 35 35 35 33 33 33 32 31 28 27 26 32 34 35 34 32 30 29 29 30 30 31 30 29 27 25 25 25 24 23 20 18
33 32 31 32 32 32 32 33 33 35 34 35 34 33 33 32 33 32 31 26 26 30 31 34 35 35 34 30 30 30 31 31 31 31 31 29 26 24 22 24 23 18 16 12
32 30 32 32 32 31 31 32 33 35 34 33 33 29 30 33 30 29 31 28 31 32 33 34 35 33 30 31 31 31 31 31 31 30 28 25 25 23 22 17 18 21 18 13

GFSNW_sfc_dewp_057.txt.gz
Dewpoint
46 46 46 46 47 48 47 42 37 50 51 42 38 35 36 37 33 36 38 39 38 32 27 25 25 25 24 27 31 25 31 29 25 26 31 33 28 27 28 25 21 26 25 20
45 46 46 46 46 48 45 38 41 51 48 38 35 36 36 37 34 36 35 37 38 37 29 24 28 29 30 33 31 31 33 29 24 23 27 33 31 30 31 30 28 25 22 22
44 46 45 44 45 47 45 40 37 44 47 41 36 34 36 35 38 36 36 36 39 37 32 31 28 28 38 39 33 41 35 31 26 24 24 28 28 27 26 28 26 23 25 23
45 44 45 44 45 46 44 41 34 39 37 39 39 34 35 35 35 37 35 33 35 35 33 30 29 37 37 38 38 36 33 28 27 27 26 25 24 25 27 26 26 24 24 25
45 45 44 44 46 48 42 37 39 41 38 38 39 34 32 34 35 33 32 30 35 33 33 32 29 36 35 33 35 32 33 26 25 29 29 28 26 26 25 26 25 27 26 24
45 44 44 44 43 45 42 36 43 41 38 35 36 35 33 33 35 35 33 32 30 29 36 39 37 35 36 34 34 32 31 31 27 23 26 26 24 26 25 25 25 24 22 24
44 43 42 43 43 44 44 35 44 42 34 37 33 35 34 33 33 33 34 32 33 35 42 40 38 39 40 38 38 37 33 31 27 24 25 17 25 29 27 26 26 26 27 29
43 43 42 43 43 43 41 42 43 44 34 37 37 36 36 34 34 34 33 34 31 42 43 36 33 32 32 34 38 38 37 32 28 24 25 25 27 24 24 22 23 29 31 32
42 42 41 42 43 42 43 41 46 44 40 37 39 37 37 36 34 33 35 42 47 45 41 34 30 29 33 33 33 37 36 35 30 25 22 21 29 29 25 26 22 29 31 34
41 41 42 42 44 44 43 43 48 44 40 42 43 39 38 38 37 36 36 45 44 45 35 32 30 29 34 30 29 29 30 30 28 23 22 27 29 29 26 19 22 32 35 34
41 42 42 43 44 44 43 43 48 45 43 44 46 46 40 39 38 35 40 42 42 39 35 35 33 29 33 30 32 30 31 30 25 26 20 23 32 30 22 27 36 36 37 38
41 41 42 43 44 45 44 42 49 49 43 44 46 46 46 46 44 38 43 39 42 42 39 37 35 33 31 31 29 35 28 31 31 30 30 34 37 31 36 37 37 38 38 39
43 43 42 41 42 45 44 43 46 44 40 39 43 44 47 49 48 50 41 43 45 45 45 41 39 33 35 31 31 35 35 37 33 33 37 39 40 40 39 39 38 39 40 38
43 43 43 44 44 43 46 44 46 43 42 37 40 49 51 52 52 51 49 45 50 47 45 40 37 32 41 37 38 36 36 36 36 36 38 39 40 37 37 36 36 35 34 33
43 43 44 44 45 47 47 47 46 46 44 39 38 45 48 51 52 51 49 50 47 42 38 35 37 38 37 35 36 35 36 35 34 33 38 37 38 37 37 35 35 34 33 32
43 44 44 47 46 46 44 40 44 49 48 42 35 45 47 50 52 50 49 49 48 45 42 39 42 43 36 33 31 35 39 40 36 36 39 38 37 36 35 35 33 33 32 31
44 46 46 46 46 44 41 36 41 48 47 41 35 36 46 50 50 47 48 47 45 45 42 38 38 40 38 31 29 37 38 38 38 37 36 35 35 34 33 33 33 33 32 32
46 46 46 45 45 44 40 47 47 46 44 43 35 35 40 47 43 42 45 42 42 43 41 39 33 38 34 31 36 38 37 37 37 36 37 36 34 33 32 32 32 31 30 30
46 46 46 45 42 38 42 47 47 49 43 36 33 34 33 44 41 40 40 40 36 41 34 38 39 35 36 36 37 37 37 37 35 34 33 33 33 32 32 31 29 28 27 28
46 43 40 35 39 47 48 46 43 44 43 41 35 39 35 42 36 35 37 35 35 34 37 39 34 34 37 37 38 38 37 35 35 33 33 33 32 32 31 29 28 28 27 28
40 39 38 45 47 43 40 35 34 35 33 36 37 38 38 42 36 35 34 34 32 32 34 35 32 32 34 38 38 37 36 36 36 36 35 34 34 32 31 29 29 28 28 27
42 44 47 46 43 37 34 32 33 34 32 34 36 37 39 37 40 35 35 33 30 31 35 33 31 32 37 37 36 37 37 36 35 35 35 35 33 31 30 29 28 28 27 23
46 42 36 38 33 31 30 29 30 31 33 35 35 34 35 35 35 32 30 24 28 33 31 30 32 36 37 37 36 36 36 36 34 33 32 31 30 29 28 28 27 25 22 20
37 35 30 31 30 30 30 31 33 33 33 34 34 33 34 33 32 30 28 32 31 20 21 26 32 36 36 34 34 33 33 31 31 31 30 29 26 25 25 25 23 20 17 19
33 33 27 28 31 32 32 33 33 33 35 34 34 34 35 32 32 30 31 30 27 22 22 31 34 35 33 32 31 31 30 30 30 30 29 27 25 23 22 22 20 18 19 17
33 31 31 32 32 31 32 32 33 35 33 33 32 31 31 30 31 30 28 24 25 28 31 33 34 32 31 31 31 31 31 30 30 29 28 27 24 22 20 21 19 18 17 15
30 29 32 32 31 31 32 32 32 35 33 31 29 28 29 31 28 27 29 26 29 31 32 32 32 32 32 32 31 31 31 30 29 27 25 24 22 20 18 17 18 16 16 15

GFSNW_sfc_dewp_060.txt.gz
Dewpoint
46 45 45 46 47 45 46 43 33 44 51 42 42 38 35 37 36 38 36 38 38 31 26 25 25 24 24 27 28 24 30 26 21 25 31 30 28 29 27 25 21 25 24 21
46 45 45 46 47 45 43 39 35 50 47 34 37 38 35 37 35 35 33 36 37 37 29 23 26 28 29 29 27 28 31 25 20 20 25 32 31 30 30 29 27 24 22 22
46 45 45 46 46 46 44 39 31 42 44 36 33 35 35 34 38 36 36 35 37 36 33 30 27 28 35 35 31 40 35 30 23 19 19 26 29 28 30 28 26 24 24 23
46 45 45 45 45 46 45 39 31 38 35 35 35 35 34 33 33 36 37 35 35 35 32 30 28 35 37 37 40 35 31 25 27 26 25 24 24 24 26 25 25 23 24 24
46 45 45 45 45 46 44 36 34 40 36 35 35 37 33 33 34 36 34 33 33 35 32 31 29 36 35 32 34 33 32 26 26 28 28 28 28 26 27 26 26 25 25 24
46 44 44 45 45 44 39 41 40 41 35 36 33 34 33 33 35 36 35 33 32 33 33 33 37 37 36 35 34 32 30 30 26 23 26 26 24 26 26 26 26 26 24 26
46 44 43 44 44 43 42 41 40 39 33 35 32 32 34 33 35 35 35 37 34 33 37 40 38 38 38 37 36 35 31 29 27 24 24 17 25 29 28 27 26 25 25 27
45 44 44 45 44 44 42 41 41 40 33 35 35 33 33 33 35 36 35 36 35 38 39 36 33 32 32 34 38 38 35 31 28 24 24 23 24 25 25 24 22 27 27 31
45 44 43 43 44 45 43 42 42 42 38 35 35 34 35 33 33 34 35 37 42 43 38 34 30 29 31 32 33 36 34 33 29 25 21 19 26 28 25 23 21 29 32 34
44 44 43 43 44 45 42 41 42 41 38 41 39 35 34 36 35 34 34 39 41 41 31 29 29 30 34 31 31 31 30 29 26 23 22 27 31 28 26 19 24 30 33 34
44 44 44 43 44 44 41 40 45 42 39 43 45 43 38 37 36 33 37 41 40 36 32 32 30 28 33 32 34 33 32 31 27 25 22 24 30 28 23 28 34 34 34 35
43 43 42 43 43 43 40 37 43 47 43 42 45 45 46 40 39 37 41 36 41 41 38 35 33 31 31 31 29 34 31 33 32 31 31 34 33 30 33 34 35 36 37 38
43 42 42 43 43 42 39 39 43 44 41 41 43 42 47 48 47 45 39 40 44 42 43 40 38 33 35 31 32 33 34 35 32 32 34 37 39 39 39 39 38 39 40 34
42 42 42 42 43 43 40 40 42 44 42 37 39 48 47 50 49 49 46 43 47 45 43 38 37 34 39 33 37 35 37 37 35 34 38 39 39 38 37 37 37 36 34 33
41 41 43 43 43 43 42 43 46 45 42 37 38 42 47 51 50 50 49 48 45 42 38 35 35 38 37 35 35 31 37 36 34 33 36 36 36 37 37 36 35 35 33 32
41 42 42 42 44 44 41 38 46 46 46 39 33 40 42 48 51 50 48 48 46 43 39 37 40 41 37 32 31 35 37 38 37 35 39 37 37 36 35 34 33 33 32 31
43 42 43 44 44 43 40 38 44 46 45 39 34 34 42 48 50 48 48 46 44 44 41 35 38 39 36 29 30 36 38 38 39 37 37 35 35 34 33 33 32 32 31 31
43 43 44 44 45 45 40 46 46 45 42 41 34 35 38 46 42 42 46 42 42 42 41 37 34 38 33 35 36 37 37 36 36 35 36 35 34 33 32 32 32 31 31 30
44 45 46 45 42 38 39 47 47 47 41 34 32 33 29 41 40 40 41 42 36 40 35 37 38 33 36 36 36 36 37 36 34 33 34 33 32 32 31 31 30 29 29 29
45 42 39 34 37 47 45 44 38 40 40 40 34 38 34 39 35 36 35 35 35 34 36 39 34 34 37 38 39 38 36 34 34 33 32 32 31 30 29 29 29 29 29 29
38 35 36 41 45 44 40 34 34 35 33 36 36 37 36 41 35 34 34 34 33 33 35 34 33 32 35 38 40 39 38 37 37 36 35 33 32 30 28 28 29 29 29 27
40 43 44 44 40 37 31 32 33 33 32 34 35 36 38 37 40 35 34 32 32 31 35 34 31 32 36 36 36 36 36 36 35 34 33 33 31 30 30 30 30 28 24 24
42 41 36 38 33 30 22 27 30 31 33 35 35 34 35 34 36 32 32 30 30 33 32 31 32 36 37 36 36 35 36 35 35 34 33 33 32 32 30 28 26 23 22 21
37 33 29 31 29 30 31 32 31 32 33 34 34 33 34 33 33 31 32 32 31 28 26 27 32 35 35 35 35 33 33 33 32 32 31 30 29 27 26 26 23 21 19 20
32 32 27 28 31 32 32 32 33 33 34 34 34 34 34 32 31 31 31 29 27 24 22 30 33 34 33 33 32 32 31 31 30 28 27 27 26 25 22 20 19 20 20 18
32 30 30 32 31 30 32 32 32 34 33 33 34 32 31 30 31 29 27 26 25 28 30 32 33 32 32 31 31 31 31 30 30 29 27 26 24 22 19 18 18 18 17 16
30 28 30 30 30 29 30 31 30 34 33 30 30 30 28 31 27 25 28 25 28 30 31 32 32 31 31 31 31 30 30 29 29 28 27 22 21 19 17 15 15 15 16 16

GFSNW_sfc_dewp_066.txt.gz
Dewpoint
48 48 48 48 48 46 47 41 34 44 47 36 37 33 32 33 30 37 36 36 35 35 26 24 20 21 22 26 25 26 27 26 24 23 28 30 28 27 29 26 23 28 29 22
48 48 48 48 48 47 45 37 38 48 44 29 31 32 32 30 32 30 35 34 34 37 35 25 25 24 28 26 26 26 28 26 23 22 26 31 27 27 27 28 30 25 30 23
48 48 48 48 48 47 43 38 32 39 41 34 29 29 29 29 32 32 33 34 34 34 33 35 27 26 31 31 28 39 34 25 24 22 18 19 23 25 27 26 28 24 23 21
48 48 48 48 48 47 43 39 35 36 31 34 29 29 27 26 28 31 34 34 34 33 31 32 29 28 34 31 37 32 32 24 24 21 18 17 19 17 20 23 23 22 24 20
47 47 49 48 48 47 41 35 36 34 33 34 31 28 28 26 26 29 30 32 32 33 33 33 31 32 33 30 36 33 32 26 27 25 22 22 20 20 21 24 23 24 26 23
46 47 48 48 48 46 40 41 37 33 32 33 30 28 24 26 27 30 31 32 32 33 33 36 36 37 35 34 32 35 33 29 29 24 27 26 30 28 23 26 28 28 25 25
46 46 46 48 47 45 44 40 37 36 29 30 30 27 23 25 26 30 31 34 34 33 38 37 35 34 33 33 32 34 35 32 32 29 32 31 24 29 26 26 26 26 27 26
46 46 46 48 46 45 42 41 38 35 35 27 27 29 25 26 28 30 31 36 36 39 36 33 30 32 33 32 34 37 37 35 34 36 27 24 25 26 28 28 26 27 28 26
46 46 46 47 46 45 41 43 42 42 35 31 27 30 29 27 29 33 33 36 42 41 38 36 28 28 30 31 35 37 35 36 36 32 29 32 30 26 29 29 26 26 27 27
45 46 47 47 46 45 42 44 46 41 36 32 31 32 31 29 30 35 35 39 39 40 39 37 33 30 30 31 34 37 36 36 37 33 35 30 30 29 30 26 30 29 28 30
45 47 47 46 45 45 42 43 46 43 39 36 34 35 35 32 33 35 34 35 39 40 37 36 35 37 33 32 33 35 34 35 37 34 37 33 32 28 28 33 37 34 35 35
44 45 46 46 45 45 42 41 46 45 42 40 44 46 42 35 34 34 41 32 36 38 36 39 38 40 40 33 30 33 33 35 35 34 33 40 35 33 34 36 34 36 36 36
44 46 46 46 45 44 41 42 45 44 40 38 41 39 42 46 42 41 37 38 34 38 41 42 42 41 40 39 34 32 34 37 37 36 32 35 38 35 38 35 35 35 37 38
46 46 45 45 45 45 43 41 44 40 39 35 37 44 42 46 45 42 42 38 46 45 45 45 43 42 38 40 36 36 35 37 34 36 35 37 38 40 39 38 39 39 39 38
45 45 45 45 46 44 43 45 42 41 38 35 37 41 40 47 46 41 41 45 46 48 46 40 42 42 43 43 41 40 37 36 39 38 40 39 35 40 41 41 39 39 38 37
45 45 46 44 44 42 39 38 43 43 42 37 34 41 37 45 45 42 43 43 45 45 42 45 41 43 43 43 38 35 37 39 39 37 40 40 40 38 39 41 40 39 37 37
45 45 44 43 41 39 35 34 40 43 43 37 33 33 42 47 45 45 45 44 44 44 43 45 43 44 41 43 38 34 38 39 40 39 39 38 37 37 37 38 37 37 35 34
43 42 42 40 41 40 39 46 44 41 39 39 32 33 39 47 43 43 48 45 46 46 44 45 44 45 45 41 37 35 38 38 39 38 38 38 37 36 35 35 34 33 33 33
42 42 41 41 37 36 42 43 42 45 40 35 33 33 33 44 42 43 43 44 39 44 43 44 44 43 40 36 37 39 39 39 38 36 36 36 36 34 34 35 35 34 33 33
42 40 37 34 38 46 43 40 39 39 40 39 35 37 34 41 41 39 41 43 39 35 39 44 42 39 39 39 40 40 40 38 37 37 35 35 35 34 34 34 34 33 32 31
39 36 36 41 45 43 39 34 35 35 33 37 36 37 38 43 39 37 40 37 38 35 38 38 38 39 39 40 39 39 38 38 38 38 36 35 35 35 33 33 33 31 30 29
40 41 43 41 37 35 33 33 33 33 32 37 37 39 40 41 43 38 38 35 35 33 37 34 33 35 37 39 39 38 38 37 37 37 36 34 33 33 32 32 31 30 30 29
44 39 36 36 35 31 32 28 33 33 37 38 39 36 41 42 40 36 37 33 35 36 33 32 32 35 36 37 36 35 34 34 33 33 32 32 31 31 30 29 30 30 28 28
37 35 30 33 32 33 34 34 36 37 38 37 39 37 41 40 37 37 34 35 36 33 32 28 33 33 34 35 33 32 31 31 31 30 29 29 28 29 30 30 30 29 27 28
33 35 29 31 33 33 33 34 36 35 39 38 39 38 38 35 34 35 35 33 30 30 29 31 33 34 33 32 31 30 29 29 28 28 28 29 29 27 28 28 28 26 26 24
32 28 29 28 29 27 29 30 32 34 35 36 36 33 33 32 34 32 30 29 26 28 30 32 32 31 30 29 29 29 29 29 29 30 28 28 26 25 24 24 23 24 23 22
30 27 28 27 26 25 26 28 28 32 34 32 35 31 29 34 28 25 26 25 27 30 30 32 32 31 30 30 30 30 30 29 28 27 27 25 22 21 18 16 16 17 18 20

GFSNW_sfc_dewp_069.txt.gz
Dewpoint
48 48 48 48 49 48 47 43 35 41 49 36 37 33 31 31 26 23 26 32 30 24 28 26 23 26 21 22 22 23 25 25 23 24 23 22 25 26 26 27 23 26 27 23
48 48 48 48 48 48 45 38 38 44 45 31 33 32 30 29 26 24 27 30 30 33 34 28 25 26 28 24 24 26 26 24 24 21 23 27 25 26 26 28 27 25 33 25
48 48 48 48 48 49 46 39 33 40 42 33 30 28 26 26 28 28 24 28 29 31 33 34 28 28 28 34 26 37 34 25 24 23 21 23 24 21 23 26 32 27 24 21
48 48 48 48 48 49 45 39 34 36 31 34 31 29 24 23 23 27 30 28 30 30 30 30 33 30 30 32 34 32 30 25 23 20 19 18 18 19 20 21 23 25 23 20
48 48 47 48 48 49 43 35 32 32 30 35 32 30 26 21 20 21 24 28 27 29 28 30 31 32 31 28 30 31 30 27 26 22 21 19 17 16 17 16 16 16 17 18
47 48 47 47 48 48 41 42 35 34 32 32 31 30 27 22 21 23 23 24 27 29 30 37 36 35 34 33 34 32 31 32 27 26 21 22 27 21 19 19 19 21 22 23
47 47 48 47 48 48 44 43 35 35 29 32 29 28 27 24 22 23 23 26 28 28 37 37 37 35 34 32 31 34 32 31 31 33 34 29 25 25 22 22 21 22 23 22
46 46 47 48 48 48 44 40 39 35 35 27 28 28 27 27 24 24 22 27 31 35 36 34 30 34 34 33 30 31 34 35 36 34 31 25 21 25 26 24 22 23 22 22
45 46 46 46 47 48 45 41 42 39 35 30 27 27 28 26 24 25 26 28 35 39 33 34 26 28 29 32 29 34 33 37 38 34 29 28 26 24 29 26 27 26 25 26
45 45 46 46 46 48 45 44 46 40 33 30 29 28 29 28 27 26 26 33 41 39 38 37 31 26 26 27 35 35 36 37 38 35 33 28 24 25 32 28 30 27 26 27
44 45 45 45 45 47 45 44 45 40 35 33 33 32 30 30 29 29 30 34 39 39 37 34 31 35 31 25 28 35 35 35 38 37 37 32 32 30 29 35 35 33 32 31
45 45 45 45 45 46 46 43 44 44 41 36 41 35 41 34 31 30 33 35 35 34 34 36 35 41 42 30 28 28 35 36 36 34 34 38 35 33 35 35 37 35 36 33
46 45 45 45 46 46 46 44 46 43 41 39 40 39 41 43 42 44 36 38 34 34 36 34 38 37 35 38 33 27 28 29 35 35 33 34 36 36 36 37 37 35 37 36
45 45 46 46 46 46 45 43 43 40 37 35 32 36 39 42 45 44 44 40 39 39 37 42 43 41 34 39 30 31 27 28 30 31 30 30 36 39 39 38 39 37 36 36
46 46 45 46 45 45 44 43 42 41 32 34 33 39 39 39 45 43 43 44 41 40 42 45 41 32 31 39 39 36 28 32 37 35 34 38 35 41 43 41 40 40 39 37
45 46 46 45 45 43 40 38 44 42 42 38 35 39 39 39 41 43 45 44 40 39 39 42 34 30 34 43 35 29 26 30 35 36 39 41 42 39 38 40 41 40 40 38
46 46 45 44 43 40 39 36 39 42 40 37 34 35 40 40 38 38 43 44 42 41 43 44 41 37 39 44 37 27 29 32 37 41 40 39 39 39 39 39 39 39 38 37
44 43 44 44 44 44 41 42 43 40 36 39 34 34 36 43 38 42 45 43 43 41 41 43 42 44 45 39 34 32 32 35 39 40 40 40 39 38 37 36 36 36 36 36
43 43 43 43 43 40 42 43 41 40 36 34 35 33 32 43 43 44 43 43 39 44 43 42 39 40 39 32 32 32 36 37 38 38 37 37 38 36 36 36 36 35 35 34
42 41 36 37 42 43 42 39 39 38 38 39 34 38 34 38 39 40 42 44 41 37 41 41 40 39 36 35 40 41 41 40 39 39 38 37 37 37 36 36 37 36 35 34
38 37 38 43 43 43 39 35 34 34 33 35 37 36 33 39 37 37 41 38 40 37 39 39 39 37 36 41 41 41 41 40 39 39 39 37 38 37 36 35 35 35 34 32
41 41 41 40 38 35 33 32 34 32 29 35 36 35 34 38 45 40 40 37 39 35 38 35 34 34 37 39 39 39 40 39 38 37 36 36 35 35 34 32 30 30 29 30
44 35 35 35 34 30 30 28 32 33 38 38 37 34 39 42 41 39 38 36 35 39 34 33 33 35 36 36 34 34 35 35 34 33 32 31 30 30 29 29 30 30 29 29
37 36 31 33 32 34 34 34 37 37 39 41 40 39 40 41 38 38 34 36 37 34 32 32 34 34 34 34 34 30 30 30 29 29 30 30 29 30 30 31 31 30 29 29
35 34 28 29 32 33 33 35 36 36 41 41 40 40 39 36 36 37 36 33 30 30 30 31 33 34 33 30 30 29 29 29 30 31 30 31 30 28 29 30 29 27 28 26
30 28 30 30 32 28 29 31 32 33 36 43 40 36 34 33 35 34 30 32 27 28 30 33 31 30 30 30 30 30 31 30 30 30 29 28 27 26 26 26 26 27 26 25
29 28 29 30 30 26 26 28 28 31 36 33 36 32 28 34 29 25 27 25 28 31 31 32 31 30 30 31 31 31 31 30 29 29 27 25 23 22 20 18 18 19 20 23

GFSNW_sfc_dewp_075.txt.gz
Dewpoint
46 47 48 48 49 49 47 43 33 45 45 36 34 28 27 31 28 27 26 25 24 27 27 26 30 31 27 27 29 22 25 30 26 24 24 24 23 25 28 31 27 29 28 25
46 47 47 48 49 49 45 37 38 44 42 30 30 29 29 29 29 29 26 24 24 26 24 28 36 36 35 30 29 28 30 30 27 24 24 24 22 25 26 30 31 28 27 29
47 47 47 48 49 49 46 36 31 38 41 36 31 30 29 29 31 29 28 26 26 25 26 32 36 37 38 35 32 40 36 33 29 24 24 27 25 24 24 27 27 27 28 29
47 47 47 48 48 49 46 37 33 35 32 34 34 30 29 28 28 28 28 26 26 25 24 31 33 38 39 37 38 35 34 29 29 27 24 25 26 25 24 22 26 29 29 28
46 46 47 47 48 49 43 33 35 35 31 32 35 33 32 28 27 26 25 26 25 25 24 31 31 36 40 39 33 31 33 29 30 28 28 23 23 24 24 23 24 23 24 28
46 46 47 47 47 48 42 41 38 35 33 33 31 30 29 30 30 28 26 26 25 24 26 37 41 45 43 42 39 34 31 32 30 26 29 27 24 25 24 24 25 24 22 24
47 47 47 47 47 47 45 43 39 33 32 29 33 30 30 29 30 30 27 26 24 25 26 45 44 41 43 42 38 37 35 35 33 30 30 23 27 26 25 25 24 23 24 25
46 46 46 47 47 47 46 45 39 35 30 33 29 32 31 31 31 31 29 28 27 27 32 36 34 35 36 36 38 36 36 36 33 29 28 29 28 26 27 25 25 25 25 26
45 45 45 46 47 47 47 45 43 37 32 30 31 31 31 29 29 29 30 31 32 32 25 32 27 27 33 32 33 35 35 37 34 33 27 24 30 31 29 31 25 29 29 29
45 45 45 45 46 47 47 45 46 39 33 32 31 29 29 31 30 28 29 31 32 32 29 26 27 27 33 30 29 29 31 34 32 29 31 33 33 30 33 25 27 30 33 32
45 45 45 45 45 46 47 45 46 42 38 37 34 35 33 33 32 29 31 31 32 31 28 29 30 27 30 29 31 33 32 31 31 33 31 31 35 33 29 33 36 34 37 35
45 45 45 45 45 45 46 42 47 45 42 39 43 41 36 37 36 36 34 30 29 34 33 33 33 29 29 27 25 35 32 37 35 36 33 39 40 35 40 38 38 38 38 39
45 45 45 45 45 45 45 42 44 44 41 40 41 38 39 41 39 41 38 37 33 34 38 38 35 29 33 25 28 32 35 39 37 36 36 37 43 40 41 40 39 39 39 38
45 46 45 45 45 46 45 41 44 43 38 33 37 42 41 42 42 43 43 42 41 41 38 36 38 34 33 31 33 32 34 36 36 35 33 34 38 37 39 40 42 41 41 39
45 46 46 46 45 45 44 43 45 45 41 35 35 40 39 42 42 41 40 41 40 40 37 34 35 37 38 38 35 33 32 32 34 32 34 35 37 40 42 40 43 43 42 40
46 45 45 45 45 45 43 38 45 47 47 38 32 39 37 40 40 39 40 40 41 41 38 37 41 42 40 35 31 34 33 32 31 34 39 43 43 40 40 41 41 41 41 41
44 45 45 45 44 44 39 36 43 47 47 38 32 32 37 39 38 40 41 41 40 40 39 37 39 39 39 36 29 31 32 31 31 31 41 40 40 40 40 39 38 40 39 39
45 45 46 46 45 44 42 44 45 46 41 38 29 28 34 40 36 35 40 38 39 39 37 38 39 40 39 32 31 29 30 32 41 42 41 42 40 38 37 38 38 37 36 36
46 46 46 44 43 40 42 45 45 47 40 31 30 26 26 37 36 37 38 38 33 37 31 37 38 37 34 36 35 32 33 31 34 41 40 40 38 37 37 37 37 36 34 30
45 44 38 33 40 44 43 42 38 38 37 37 29 33 29 36 34 33 34 35 33 31 33 40 35 34 40 40 41 42 41 41 40 38 38 38 38 37 36 33 32 30 29 28
42 37 36 41 44 42 37 32 32 33 29 33 33 33 31 36 32 30 34 32 33 27 34 31 33 33 37 37 37 39 37 37 36 36 39 39 36 34 31 29 29 28 26 24
39 39 42 41 38 35 29 28 30 28 27 32 33 33 33 34 36 30 34 33 33 29 38 33 31 32 34 33 33 34 34 33 32 32 32 32 31 30 29 28 27 26 26 25
40 38 34 34 31 27 21 21 24 25 29 34 33 31 33 34 36 32 32 30 31 35 33 30 30 32 32 32 31 30 31 31 30 29 29 29 28 28 27 26 26 25 25 25
36 33 27 30 25 28 27 30 32 33 34 33 33 33 32 33 30 32 31 33 34 31 28 25 28 29 28 29 29 28 28 28 28 28 28 28 27 27 27 26 26 25 24 24
29 27 24 24 29 27 29 29 31 30 31 33 33 33 34 32 31 32 31 31 25 25 23 27 28 29 29 29 29 28 28 28 27 27 26 26 25 25 24 25 25 24 23 22
26 24 24 25 24 22 23 24 26 30 29 32 34 34 32 31 31 25 24 24 20 23 27 29 29 28 28 28 28 28 27 26 26 26 25 25 24 23 24 24 24 23 22 22
27 22 24 24 22 22 24 25 25 29 28 32 32 27 26 31 24 21 24 21 24 26 27 29 29 28 28 28 28 27 27 26 25 25 24 24 24 24 21 21 21 20 20 20